Time,TemperatureF,DewpointF,PressureIn,WindDirection,WindDirectionDegrees,WindSpeedMPH,WindSpeedGustMPH,Humidity,HourlyPrecipIn,Conditions,Clouds,dailyrainin,SolarRadiationWatts/m^2,SoftwareType,DateUTC
2013-11-03 00:01:00,53.8,44.2,29.78,NNW,340,0.0,0.0,70,0.00,,,0.00,0.0,meteohub,2013-11-03 04:01:00,
2013-11-03 00:02:00,53.8,44.2,29.79,NW,308,0.0,0.0,70,0.00,,,0.00,0.0,meteohub,2013-11-03 04:02:00,
2013-11-03 00:06:00,53.8,44.2,29.78,NNW,331,0.0,0.0,70,0.00,,,0.00,0.0,meteohub,2013-11-03 04:06:00,
2013-11-03 00:07:00,53.6,44.4,29.79,NNW,331,0.0,0.0,71,0.00,,,0.00,0.0,meteohub,2013-11-03 04:07:00,
2013-11-03 00:08:00,53.6,44.4,29.79,WNW,289,0.0,0.0,71,0.00,,,0.00,0.0,meteohub,2013-11-03 04:08:00,
2013-11-03 00:11:00,53.6,44.1,29.79,NW,323,0.0,0.0,70,0.00,,,0.00,0.0,meteohub,2013-11-03 04:11:00,
2013-11-03 00:12:00,53.6,44.4,29.79,NW,304,0.0,0.0,71,0.00,,,0.00,0.0,meteohub,2013-11-03 04:12:00,
2013-11-03 00:14:00,53.6,44.4,29.79,NW,306,0.0,0.0,71,0.00,,,0.00,0.0,meteohub,2013-11-03 04:14:00,
2013-11-03 00:17:00,53.6,44.4,29.79,NW,319,0.0,0.0,71,0.00,,,0.00,0.0,meteohub,2013-11-03 04:17:00,
2013-11-03 00:18:00,53.4,44.2,29.79,NW,311,0.0,0.0,71,0.00,,,0.00,0.0,meteohub,2013-11-03 04:18:00,
2013-11-03 00:20:00,53.4,44.2,29.79,NW,320,0.0,0.0,71,0.00,,,0.00,0.0,meteohub,2013-11-03 04:20:00,
2013-11-03 00:21:00,53.4,44.2,29.79,NW,316,0.0,0.0,71,0.00,,,0.00,0.0,meteohub,2013-11-03 04:21:00,
2013-11-03 00:22:00,53.4,44.2,29.79,NW,315,0.0,0.0,71,0.00,,,0.00,0.0,meteohub,2013-11-03 04:22:00,
2013-11-03 00:23:00,53.4,44.2,29.79,NW,319,0.0,0.0,71,0.00,,,0.00,0.0,meteohub,2013-11-03 04:23:00,
2013-11-03 00:24:00,53.4,44.2,29.79,NW,319,0.0,0.0,71,0.00,,,0.00,0.0,meteohub,2013-11-03 04:24:00,
2013-11-03 00:26:00,53.4,44.2,29.79,NW,315,0.0,0.0,71,0.00,,,0.00,0.0,meteohub,2013-11-03 04:26:00,
2013-11-03 00:28:00,53.2,44.1,29.79,NW,315,0.0,0.0,71,0.00,,,0.00,0.0,meteohub,2013-11-03 04:28:00,
2013-11-03 00:29:00,53.2,44.1,29.79,NW,315,0.0,0.0,71,0.00,,,0.00,0.0,meteohub,2013-11-03 04:29:00,
2013-11-03 00:31:00,53.2,44.1,29.79,NW,315,0.0,0.0,71,0.00,,,0.00,0.0,meteohub,2013-11-03 04:31:00,
2013-11-03 00:32:00,53.2,44.1,29.79,NW,315,0.0,0.0,71,0.00,,,0.00,0.0,meteohub,2013-11-03 04:32:00,
2013-11-03 00:33:00,53.2,44.1,29.79,NW,315,0.0,0.0,71,0.00,,,0.00,0.0,meteohub,2013-11-03 04:33:00,
2013-11-03 00:34:00,53.2,44.1,29.79,NW,315,0.0,0.0,71,0.00,,,0.00,0.0,meteohub,2013-11-03 04:34:00,
2013-11-03 00:35:00,53.2,44.1,29.79,NW,315,0.0,0.0,71,0.00,,,0.00,0.0,meteohub,2013-11-03 04:35:00,
2013-11-03 00:36:00,53.2,44.1,29.79,NW,315,0.0,0.0,71,0.00,,,0.00,0.0,meteohub,2013-11-03 04:36:00,
2013-11-03 00:37:00,53.2,44.1,29.79,NW,315,0.0,0.0,71,0.00,,,0.00,0.0,meteohub,2013-11-03 04:37:00,
2013-11-03 00:39:00,53.1,43.9,29.79,NW,315,0.0,0.0,71,0.00,,,0.00,0.0,meteohub,2013-11-03 04:39:00,
2013-11-03 00:40:00,53.1,43.9,29.79,NW,315,0.0,0.0,71,0.00,,,0.00,0.0,meteohub,2013-11-03 04:40:00,
2013-11-03 00:41:00,53.1,44.2,29.79,NW,315,0.0,0.0,72,0.00,,,0.00,0.0,meteohub,2013-11-03 04:41:00,
2013-11-03 00:42:00,53.1,44.2,29.79,NW,315,0.0,0.0,72,0.00,,,0.00,0.0,meteohub,2013-11-03 04:42:00,
2013-11-03 00:43:00,53.1,44.2,29.79,NW,315,0.0,0.0,72,0.00,,,0.00,0.0,meteohub,2013-11-03 04:43:00,
2013-11-03 00:44:00,52.9,44.1,29.79,NW,315,0.0,0.0,72,0.00,,,0.00,0.0,meteohub,2013-11-03 04:44:00,
2013-11-03 00:45:00,52.9,44.1,29.80,NW,315,0.0,0.0,72,0.00,,,0.00,0.0,meteohub,2013-11-03 04:45:00,
2013-11-03 00:46:00,52.9,44.1,29.80,NW,315,0.0,0.0,72,0.00,,,0.00,0.0,meteohub,2013-11-03 04:46:00,
2013-11-03 00:47:00,52.9,44.1,29.80,NW,315,0.0,0.0,72,0.00,,,0.00,0.0,meteohub,2013-11-03 04:47:00,
2013-11-03 00:48:00,52.9,44.1,29.79,WNW,298,0.0,0.0,72,0.00,,,0.00,0.0,meteohub,2013-11-03 04:48:00,
2013-11-03 00:50:00,52.7,43.9,29.80,WNW,298,0.0,0.0,72,0.00,,,0.00,0.0,meteohub,2013-11-03 04:50:00,
2013-11-03 00:52:00,52.7,43.9,29.80,NW,312,0.0,0.0,72,0.00,,,0.00,0.0,meteohub,2013-11-03 04:52:00,
2013-11-03 00:53:00,52.7,43.9,29.80,NW,312,0.0,0.0,72,0.00,,,0.00,0.0,meteohub,2013-11-03 04:53:00,
2013-11-03 00:55:00,52.5,43.7,29.80,NW,312,0.0,0.0,72,0.00,,,0.00,0.0,meteohub,2013-11-03 04:55:00,
2013-11-03 00:57:00,52.5,43.7,29.80,NW,306,0.0,0.0,72,0.00,,,0.00,0.0,meteohub,2013-11-03 04:57:00,
2013-11-03 00:58:00,52.5,43.7,29.80,NW,307,0.0,0.0,72,0.00,,,0.00,0.0,meteohub,2013-11-03 04:58:00,
2013-11-03 00:59:00,52.3,43.5,29.80,NW,307,0.0,0.0,72,0.00,,,0.00,0.0,meteohub,2013-11-03 04:59:00,
2013-11-03 01:01:00,52.3,43.5,29.80,NW,308,0.0,0.0,72,0.00,,,0.00,0.0,meteohub,2013-11-03 05:01:00,
2013-11-03 01:02:00,52.3,43.9,29.80,NW,306,0.0,0.0,73,0.00,,,0.00,0.0,meteohub,2013-11-03 05:02:00,
2013-11-03 01:03:00,52.3,43.9,29.80,NW,311,0.0,0.0,73,0.00,,,0.00,0.0,meteohub,2013-11-03 05:03:00,
2013-11-03 01:05:00,52.3,43.9,29.80,NW,317,0.0,0.0,73,0.00,,,0.00,0.0,meteohub,2013-11-03 05:05:00,
2013-11-03 01:06:00,52.2,43.7,29.80,NW,308,0.0,0.0,73,0.00,,,0.00,0.0,meteohub,2013-11-03 05:06:00,
2013-11-03 01:07:00,52.2,43.7,29.80,NW,308,0.0,0.0,73,0.00,,,0.00,0.0,meteohub,2013-11-03 05:07:00,
2013-11-03 01:08:00,52.2,43.7,29.80,NW,323,0.0,0.0,73,0.00,,,0.00,0.0,meteohub,2013-11-03 05:08:00,
2013-11-03 01:11:00,52.2,43.7,29.80,NW,311,0.0,0.0,73,0.00,,,0.00,0.0,meteohub,2013-11-03 05:11:00,
2013-11-03 01:12:00,52.0,43.5,29.80,NW,311,0.0,0.0,73,0.00,,,0.00,0.0,meteohub,2013-11-03 05:12:00,
2013-11-03 01:13:00,52.0,43.5,29.80,NNW,341,0.0,0.0,73,0.00,,,0.00,0.0,meteohub,2013-11-03 05:13:00,
2013-11-03 01:16:00,52.0,43.9,29.81,NW,325,0.0,0.0,74,0.00,,,0.00,0.0,meteohub,2013-11-03 05:16:00,
2013-11-03 01:17:00,52.0,43.9,29.81,NW,325,0.0,0.0,74,0.00,,,0.00,0.0,meteohub,2013-11-03 05:17:00,
2013-11-03 01:18:00,51.8,43.7,29.81,NW,311,0.0,0.0,74,0.00,,,0.00,0.0,meteohub,2013-11-03 05:18:00,
2013-11-03 01:22:00,51.8,43.7,29.81,NW,304,0.0,0.0,74,0.00,,,0.00,0.0,meteohub,2013-11-03 05:22:00,
2013-11-03 01:23:00,51.8,43.7,29.81,NW,304,0.0,0.0,74,0.00,,,0.00,0.0,meteohub,2013-11-03 05:23:00,
2013-11-03 01:24:00,51.6,43.5,29.81,NW,304,0.0,0.0,74,0.00,,,0.00,0.0,meteohub,2013-11-03 05:24:00,
2013-11-03 01:27:00,51.6,43.5,29.81,WNW,302,0.0,0.0,74,0.00,,,0.00,0.0,meteohub,2013-11-03 05:27:00,
2013-11-03 01:28:00,51.6,43.5,29.81,WNW,302,0.0,0.0,74,0.00,,,0.00,0.0,meteohub,2013-11-03 05:28:00,
2013-11-03 01:29:00,51.6,43.5,29.81,WNW,302,0.0,0.0,74,0.00,,,0.00,0.0,meteohub,2013-11-03 05:29:00,
2013-11-03 01:32:00,51.6,43.9,29.82,WNW,302,0.0,0.0,75,0.00,,,0.00,0.0,meteohub,2013-11-03 05:32:00,
2013-11-03 01:33:00,51.6,43.9,29.82,WNW,302,0.0,0.0,75,0.00,,,0.00,0.0,meteohub,2013-11-03 05:33:00,
2013-11-03 01:34:00,51.6,43.9,29.82,WNW,302,0.0,0.0,75,0.00,,,0.00,0.0,meteohub,2013-11-03 05:34:00,
2013-11-03 01:35:00,51.6,43.9,29.82,WNW,302,0.0,0.0,75,0.00,,,0.00,0.0,meteohub,2013-11-03 05:35:00,
2013-11-03 01:36:00,51.6,43.9,29.82,WNW,300,0.0,0.0,75,0.00,,,0.00,0.0,meteohub,2013-11-03 05:36:00,
2013-11-03 01:38:00,51.6,43.9,29.82,NW,304,0.0,0.0,75,0.00,,,0.00,0.0,meteohub,2013-11-03 05:38:00,
2013-11-03 01:39:00,51.6,43.9,29.82,WNW,303,0.0,0.0,75,0.00,,,0.00,0.0,meteohub,2013-11-03 05:39:00,
2013-11-03 01:40:00,51.6,43.9,29.82,WNW,303,0.0,0.0,75,0.00,,,0.00,0.0,meteohub,2013-11-03 05:40:00,
2013-11-03 01:41:00,51.6,43.9,29.82,WNW,303,0.0,0.0,75,0.00,,,0.00,0.0,meteohub,2013-11-03 05:41:00,
2013-11-03 01:43:00,51.6,43.9,29.83,WNW,302,0.0,0.0,75,0.00,,,0.00,0.0,meteohub,2013-11-03 05:43:00,
2013-11-03 01:45:00,51.6,43.9,29.83,WNW,296,0.0,0.0,75,0.00,,,0.00,0.0,meteohub,2013-11-03 05:45:00,
2013-11-03 01:46:00,51.4,43.7,29.83,WNW,296,0.0,0.0,75,0.00,,,0.00,0.0,meteohub,2013-11-03 05:46:00,
2013-11-03 01:49:00,51.4,43.7,29.83,WNW,296,0.0,0.0,75,0.00,,,0.00,0.0,meteohub,2013-11-03 05:49:00,
2013-11-03 01:50:00,51.4,43.7,29.83,WNW,296,0.0,0.0,75,0.00,,,0.00,0.0,meteohub,2013-11-03 05:50:00,
2013-11-03 01:51:00,51.4,43.7,29.83,WNW,296,0.0,0.0,75,0.00,,,0.00,0.0,meteohub,2013-11-03 05:51:00,
2013-11-03 01:52:00,51.4,43.7,29.83,WNW,296,0.0,0.0,75,0.00,,,0.00,0.0,meteohub,2013-11-03 05:52:00,
2013-11-03 01:54:00,51.4,43.7,29.83,WNW,296,0.0,0.0,75,0.00,,,0.00,0.0,meteohub,2013-11-03 05:54:00,
2013-11-03 01:55:00,51.4,43.7,29.83,WNW,296,0.0,0.0,75,0.00,,,0.00,0.0,meteohub,2013-11-03 05:55:00,
2013-11-03 01:56:00,51.4,43.7,29.83,WNW,296,0.0,0.0,75,0.00,,,0.00,0.0,meteohub,2013-11-03 05:56:00,
2013-11-03 01:57:00,51.4,43.7,29.83,WNW,296,0.0,0.0,75,0.00,,,0.00,0.0,meteohub,2013-11-03 05:57:00,
2013-11-03 01:58:00,51.4,43.7,29.83,WNW,296,0.0,0.0,75,0.00,,,0.00,0.0,meteohub,2013-11-03 05:58:00,
2013-11-03 01:00:00,51.3,43.9,29.83,WNW,296,0.0,0.0,76,0.00,,,0.00,0.0,meteohub,2013-11-03 06:00:00,
2013-11-03 01:01:00,51.3,43.9,29.83,WNW,296,0.0,0.0,76,0.00,,,0.00,0.0,meteohub,2013-11-03 06:01:00,
2013-11-03 01:02:00,51.3,43.9,29.83,WNW,301,0.0,0.0,76,0.00,,,0.00,0.0,meteohub,2013-11-03 06:02:00,
2013-11-03 01:03:00,51.3,43.9,29.83,West,276,0.0,0.0,76,0.00,,,0.00,0.0,meteohub,2013-11-03 06:03:00,
2013-11-03 01:04:00,51.3,43.9,29.83,WNW,293,0.0,0.0,76,0.00,,,0.00,0.0,meteohub,2013-11-03 06:04:00,
2013-11-03 01:05:00,51.3,43.9,29.83,WNW,300,0.0,0.0,76,0.00,,,0.00,0.0,meteohub,2013-11-03 06:05:00,
2013-11-03 01:06:00,51.3,43.9,29.83,WNW,300,0.0,0.0,76,0.00,,,0.00,0.0,meteohub,2013-11-03 06:06:00,
2013-11-03 01:07:00,51.3,43.9,29.83,WNW,298,0.0,0.0,76,0.00,,,0.00,0.0,meteohub,2013-11-03 06:07:00,
2013-11-03 01:08:00,51.3,43.9,29.83,WNW,302,0.0,0.0,76,0.00,,,0.00,0.0,meteohub,2013-11-03 06:08:00,
2013-11-03 01:10:00,51.3,43.9,29.83,WNW,301,0.0,0.0,76,0.00,,,0.00,0.0,meteohub,2013-11-03 06:10:00,
2013-11-03 01:11:00,51.3,43.9,29.83,WNW,294,0.0,0.0,76,0.00,,,0.00,0.0,meteohub,2013-11-03 06:11:00,
2013-11-03 01:12:00,51.3,43.9,29.83,WNW,296,0.0,0.0,76,0.00,,,0.00,0.0,meteohub,2013-11-03 06:12:00,
2013-11-03 01:13:00,51.3,43.9,29.83,WNW,296,0.0,0.0,76,0.00,,,0.00,0.0,meteohub,2013-11-03 06:13:00,
2013-11-03 01:16:00,51.1,43.7,29.83,WNW,286,0.0,0.0,76,0.00,,,0.00,0.0,meteohub,2013-11-03 06:16:00,
2013-11-03 01:17:00,51.1,43.7,29.83,WNW,294,0.0,0.0,76,0.00,,,0.00,0.0,meteohub,2013-11-03 06:17:00,
2013-11-03 01:18:00,51.1,43.7,29.83,WNW,293,0.0,0.0,76,0.00,,,0.00,0.0,meteohub,2013-11-03 06:18:00,
2013-11-03 01:21:00,51.1,43.7,29.83,NW,313,0.0,0.0,76,0.00,,,0.00,0.0,meteohub,2013-11-03 06:21:00,
2013-11-03 01:22:00,51.1,43.7,29.83,NW,313,0.0,0.0,76,0.00,,,0.00,0.0,meteohub,2013-11-03 06:22:00,
2013-11-03 01:23:00,51.1,44.1,29.83,NW,311,0.0,0.0,77,0.00,,,0.00,0.0,meteohub,2013-11-03 06:23:00,
2013-11-03 01:26:00,50.9,43.9,29.83,NW,309,0.0,0.0,77,0.00,,,0.00,0.0,meteohub,2013-11-03 06:26:00,
2013-11-03 01:27:00,50.9,43.9,29.83,NW,306,0.0,0.0,77,0.00,,,0.00,0.0,meteohub,2013-11-03 06:27:00,
2013-11-03 01:28:00,50.9,43.9,29.83,NW,311,0.0,0.0,77,0.00,,,0.00,0.0,meteohub,2013-11-03 06:28:00,
2013-11-03 01:29:00,50.9,43.9,29.83,NW,311,0.0,0.0,77,0.00,,,0.00,0.0,meteohub,2013-11-03 06:29:00,
2013-11-03 01:32:00,50.7,43.7,29.83,NW,315,0.0,0.0,77,0.00,,,0.00,0.0,meteohub,2013-11-03 06:32:00,
2013-11-03 01:33:00,50.7,43.7,29.83,NW,309,0.0,0.0,77,0.00,,,0.00,0.0,meteohub,2013-11-03 06:33:00,
2013-11-03 01:35:00,50.7,43.7,29.83,WNW,292,0.0,0.0,77,0.00,,,0.00,0.0,meteohub,2013-11-03 06:35:00,
2013-11-03 01:37:00,50.5,43.5,29.83,WNW,297,0.0,0.0,77,0.00,,,0.00,0.0,meteohub,2013-11-03 06:37:00,
2013-11-03 01:38:00,50.5,43.9,29.83,NNW,327,0.0,0.0,78,0.00,,,0.00,0.0,meteohub,2013-11-03 06:38:00,
2013-11-03 01:40:00,50.5,43.9,29.83,NW,304,0.0,0.0,78,0.00,,,0.00,0.0,meteohub,2013-11-03 06:40:00,
2013-11-03 01:41:00,50.5,43.9,29.83,NW,304,0.0,0.0,78,0.00,,,0.00,0.0,meteohub,2013-11-03 06:41:00,
2013-11-03 01:42:00,50.5,43.9,29.83,NW,304,0.0,0.0,78,0.00,,,0.00,0.0,meteohub,2013-11-03 06:42:00,
2013-11-03 01:43:00,50.5,43.9,29.83,NW,304,0.0,0.0,78,0.00,,,0.00,0.0,meteohub,2013-11-03 06:43:00,
2013-11-03 01:44:00,50.5,43.9,29.83,NW,306,0.0,0.0,78,0.00,,,0.00,0.0,meteohub,2013-11-03 06:44:00,
2013-11-03 01:45:00,50.5,43.9,29.83,WNW,300,0.0,0.0,78,0.00,,,0.00,0.0,meteohub,2013-11-03 06:45:00,
2013-11-03 01:47:00,50.4,43.7,29.83,NW,316,0.0,0.0,78,0.00,,,0.00,0.0,meteohub,2013-11-03 06:47:00,
2013-11-03 01:49:00,50.4,43.7,29.83,NW,316,0.0,0.0,78,0.00,,,0.00,0.0,meteohub,2013-11-03 06:49:00,
2013-11-03 01:52:00,50.4,43.7,29.83,NW,307,0.0,0.0,78,0.00,,,0.00,0.0,meteohub,2013-11-03 06:52:00,
2013-11-03 01:53:00,50.2,43.9,29.83,NW,307,0.0,0.0,79,0.00,,,0.00,0.0,meteohub,2013-11-03 06:53:00,
2013-11-03 01:54:00,50.2,43.9,29.83,NW,315,0.0,0.0,79,0.00,,,0.00,0.0,meteohub,2013-11-03 06:54:00,
2013-11-03 01:55:00,50.2,43.9,29.83,NW,314,0.0,0.0,79,0.00,,,0.00,0.0,meteohub,2013-11-03 06:55:00,
2013-11-03 01:58:00,50.2,43.9,29.83,NW,315,0.0,0.0,79,0.00,,,0.00,0.0,meteohub,2013-11-03 06:58:00,
2013-11-03 02:00:00,50.2,43.9,29.83,NW,305,0.0,0.0,79,0.00,,,0.00,0.0,meteohub,2013-11-03 07:00:00,
2013-11-03 02:01:00,50.0,43.7,29.83,NW,325,0.0,0.0,79,0.00,,,0.00,0.0,meteohub,2013-11-03 07:01:00,
2013-11-03 02:03:00,50.0,43.7,29.83,WNW,302,0.0,0.0,79,0.00,,,0.00,0.0,meteohub,2013-11-03 07:03:00,
2013-11-03 02:04:00,49.8,43.5,29.83,NW,317,0.0,0.0,79,0.00,,,0.00,0.0,meteohub,2013-11-03 07:04:00,
2013-11-03 02:05:00,49.8,43.9,29.83,WNW,300,0.0,0.0,80,0.00,,,0.00,0.0,meteohub,2013-11-03 07:05:00,
2013-11-03 02:06:00,49.8,43.9,29.83,NW,308,0.0,0.0,80,0.00,,,0.00,0.0,meteohub,2013-11-03 07:06:00,
2013-11-03 02:07:00,49.8,43.5,29.83,NW,321,0.0,0.0,79,0.00,,,0.00,0.0,meteohub,2013-11-03 07:07:00,
2013-11-03 02:08:00,49.8,43.9,29.83,NW,321,0.0,0.0,80,0.00,,,0.00,0.0,meteohub,2013-11-03 07:08:00,
2013-11-03 02:09:00,49.8,43.9,29.83,NW,321,0.0,0.0,80,0.00,,,0.00,0.0,meteohub,2013-11-03 07:09:00,
2013-11-03 02:10:00,49.8,43.9,29.83,NW,321,0.0,0.0,80,0.00,,,0.00,0.0,meteohub,2013-11-03 07:10:00,
2013-11-03 02:11:00,49.8,43.9,29.83,NW,321,0.0,0.0,80,0.00,,,0.00,0.0,meteohub,2013-11-03 07:11:00,
2013-11-03 02:13:00,49.6,43.7,29.83,NW,325,0.0,0.0,80,0.00,,,0.00,0.0,meteohub,2013-11-03 07:13:00,
2013-11-03 02:14:00,49.6,43.7,29.83,NW,310,0.0,0.0,80,0.00,,,0.00,0.0,meteohub,2013-11-03 07:14:00,
2013-11-03 02:15:00,49.6,43.7,29.83,NW,310,0.0,0.0,80,0.00,,,0.00,0.0,meteohub,2013-11-03 07:15:00,
2013-11-03 02:16:00,49.6,43.7,29.83,NW,304,0.0,0.0,80,0.00,,,0.00,0.0,meteohub,2013-11-03 07:16:00,
2013-11-03 02:18:00,49.6,43.7,29.83,NW,309,0.0,0.0,80,0.00,,,0.00,0.0,meteohub,2013-11-03 07:18:00,
2013-11-03 02:20:00,49.6,43.7,29.84,WNW,290,0.0,0.0,80,0.00,,,0.00,0.0,meteohub,2013-11-03 07:20:00,
2013-11-03 02:21:00,49.6,43.7,29.84,NW,307,0.0,0.0,80,0.00,,,0.00,0.0,meteohub,2013-11-03 07:21:00,
2013-11-03 02:22:00,49.6,44.1,29.84,West,276,0.0,0.0,81,0.00,,,0.00,0.0,meteohub,2013-11-03 07:22:00,
2013-11-03 02:24:00,49.5,43.9,29.84,NW,313,0.0,0.0,81,0.00,,,0.00,0.0,meteohub,2013-11-03 07:24:00,
2013-11-03 02:25:00,49.5,43.9,29.84,NW,311,0.0,0.0,81,0.00,,,0.00,0.0,meteohub,2013-11-03 07:25:00,
2013-11-03 02:26:00,49.5,43.9,29.84,WNW,298,0.0,0.0,81,0.00,,,0.00,0.0,meteohub,2013-11-03 07:26:00,
2013-11-03 02:27:00,49.5,43.9,29.84,NW,316,0.0,0.0,81,0.00,,,0.00,0.0,meteohub,2013-11-03 07:27:00,
2013-11-03 02:29:00,49.5,43.9,29.84,NW,313,0.0,0.0,81,0.00,,,0.00,0.0,meteohub,2013-11-03 07:29:00,
2013-11-03 02:30:00,49.5,43.9,29.84,WNW,302,0.0,0.0,81,0.00,,,0.00,0.0,meteohub,2013-11-03 07:30:00,
2013-11-03 02:31:00,49.5,43.9,29.84,NW,319,0.0,0.0,81,0.00,,,0.00,0.0,meteohub,2013-11-03 07:31:00,
2013-11-03 02:32:00,49.5,43.9,29.85,WNW,298,0.0,0.0,81,0.00,,,0.00,0.0,meteohub,2013-11-03 07:32:00,
2013-11-03 02:33:00,49.5,43.9,29.85,NW,320,0.0,0.0,81,0.00,,,0.00,0.0,meteohub,2013-11-03 07:33:00,
2013-11-03 02:35:00,49.5,43.9,29.85,NW,317,0.0,0.0,81,0.00,,,0.00,0.0,meteohub,2013-11-03 07:35:00,
2013-11-03 02:36:00,49.5,43.9,29.85,NW,307,0.0,0.0,81,0.00,,,0.00,0.0,meteohub,2013-11-03 07:36:00,
2013-11-03 02:37:00,49.5,43.9,29.85,NW,307,0.0,0.0,81,0.00,,,0.00,0.0,meteohub,2013-11-03 07:37:00,
2013-11-03 02:38:00,49.5,43.9,29.85,NW,326,0.0,0.0,81,0.00,,,0.00,0.0,meteohub,2013-11-03 07:38:00,
2013-11-03 02:40:00,49.5,43.9,29.85,NW,304,0.0,0.0,81,0.00,,,0.00,0.0,meteohub,2013-11-03 07:40:00,
2013-11-03 02:41:00,49.5,43.9,29.85,NW,311,0.0,0.0,81,0.00,,,0.00,0.0,meteohub,2013-11-03 07:41:00,
2013-11-03 02:43:00,49.5,43.9,29.85,WNW,298,0.0,0.0,81,0.00,,,0.00,0.0,meteohub,2013-11-03 07:43:00,
2013-11-03 02:46:00,49.5,43.9,29.85,NW,319,0.0,0.0,81,0.00,,,0.00,0.0,meteohub,2013-11-03 07:46:00,
2013-11-03 02:47:00,49.5,43.9,29.85,NW,324,0.0,0.0,81,0.00,,,0.00,0.0,meteohub,2013-11-03 07:47:00,
2013-11-03 02:48:00,49.5,43.9,29.85,NNW,330,0.0,0.0,81,0.00,,,0.00,0.0,meteohub,2013-11-03 07:48:00,
2013-11-03 02:49:00,49.5,43.9,29.85,NNW,330,0.0,0.0,81,0.00,,,0.00,0.0,meteohub,2013-11-03 07:49:00,
2013-11-03 02:51:00,49.5,44.2,29.85,NW,322,0.0,0.0,82,0.00,,,0.00,0.0,meteohub,2013-11-03 07:51:00,
2013-11-03 02:52:00,49.5,44.2,29.85,NW,321,0.0,0.0,82,0.00,,,0.00,0.0,meteohub,2013-11-03 07:52:00,
2013-11-03 02:54:00,49.5,44.2,29.85,NW,305,0.0,0.0,82,0.00,,,0.00,0.0,meteohub,2013-11-03 07:54:00,
2013-11-03 02:56:00,49.5,44.2,29.85,WNW,285,0.0,0.0,82,0.00,,,0.00,0.0,meteohub,2013-11-03 07:56:00,
2013-11-03 02:57:00,49.5,44.2,29.85,NW,312,0.0,0.0,82,0.00,,,0.00,0.0,meteohub,2013-11-03 07:57:00,
2013-11-03 02:58:00,49.3,44.1,29.85,NW,309,0.0,0.0,82,0.00,,,0.00,0.0,meteohub,2013-11-03 07:58:00,
2013-11-03 03:00:00,49.3,44.1,29.85,NW,311,0.0,0.0,82,0.00,,,0.00,0.0,meteohub,2013-11-03 08:00:00,
2013-11-03 03:01:00,49.3,44.1,29.85,WNW,296,0.0,0.0,82,0.00,,,0.00,0.0,meteohub,2013-11-03 08:01:00,
2013-11-03 03:03:00,49.3,44.1,29.85,NW,315,0.0,0.0,82,0.00,,,0.00,0.0,meteohub,2013-11-03 08:03:00,
2013-11-03 03:04:00,49.3,44.1,29.85,NW,314,0.0,0.0,82,0.00,,,0.00,0.0,meteohub,2013-11-03 08:04:00,
2013-11-03 03:05:00,49.3,44.1,29.85,NW,308,0.0,0.0,82,0.00,,,0.00,0.0,meteohub,2013-11-03 08:05:00,
2013-11-03 03:06:00,49.3,44.1,29.85,NW,313,0.0,0.0,82,0.00,,,0.00,0.0,meteohub,2013-11-03 08:06:00,
2013-11-03 03:07:00,49.3,44.1,29.85,NW,311,0.0,0.0,82,0.00,,,0.00,0.0,meteohub,2013-11-03 08:07:00,
2013-11-03 03:09:00,49.3,44.1,29.85,WNW,302,0.0,0.0,82,0.00,,,0.00,0.0,meteohub,2013-11-03 08:09:00,
2013-11-03 03:10:00,49.3,44.1,29.85,WNW,294,0.0,0.0,82,0.00,,,0.00,0.0,meteohub,2013-11-03 08:10:00,
2013-11-03 03:11:00,49.3,44.1,29.85,NW,322,0.0,0.0,82,0.00,,,0.00,0.0,meteohub,2013-11-03 08:11:00,
2013-11-03 03:12:00,49.3,44.1,29.85,NW,322,0.0,0.0,82,0.00,,,0.00,0.0,meteohub,2013-11-03 08:12:00,
2013-11-03 03:14:00,49.3,44.1,29.86,NW,318,0.0,0.0,82,0.00,,,0.00,0.0,meteohub,2013-11-03 08:14:00,
2013-11-03 03:15:00,49.3,44.1,29.86,WNW,298,0.0,0.0,82,0.00,,,0.00,0.0,meteohub,2013-11-03 08:15:00,
2013-11-03 03:17:00,49.3,44.1,29.86,NW,325,0.0,0.0,82,0.00,,,0.00,0.0,meteohub,2013-11-03 08:17:00,
2013-11-03 03:20:00,49.3,44.4,29.86,NW,319,0.0,0.0,83,0.00,,,0.00,0.0,meteohub,2013-11-03 08:20:00,
2013-11-03 03:21:00,49.1,44.2,29.86,NW,319,0.0,0.0,83,0.00,,,0.00,0.0,meteohub,2013-11-03 08:21:00,
2013-11-03 03:22:00,49.1,44.2,29.86,NW,317,0.0,0.0,83,0.00,,,0.00,0.0,meteohub,2013-11-03 08:22:00,
2013-11-03 03:23:00,49.1,44.2,29.86,NW,316,0.0,0.0,83,0.00,,,0.00,0.0,meteohub,2013-11-03 08:23:00,
2013-11-03 03:24:00,49.1,44.2,29.86,NW,316,0.0,0.0,83,0.00,,,0.00,0.0,meteohub,2013-11-03 08:24:00,
2013-11-03 03:25:00,49.1,44.2,29.86,NW,316,0.0,0.0,83,0.00,,,0.00,0.0,meteohub,2013-11-03 08:25:00,
2013-11-03 03:26:00,49.1,44.2,29.86,NW,317,0.0,0.0,83,0.00,,,0.00,0.0,meteohub,2013-11-03 08:26:00,
2013-11-03 03:27:00,49.1,44.2,29.86,NW,317,0.0,0.0,83,0.00,,,0.00,0.0,meteohub,2013-11-03 08:27:00,
2013-11-03 03:29:00,49.1,44.2,29.86,NW,317,0.0,0.0,83,0.00,,,0.00,0.0,meteohub,2013-11-03 08:29:00,
2013-11-03 03:30:00,48.9,44.1,29.86,NW,317,0.0,0.0,83,0.00,,,0.00,0.0,meteohub,2013-11-03 08:30:00,
2013-11-03 03:32:00,48.9,44.1,29.86,NW,317,0.0,0.0,83,0.00,,,0.00,0.0,meteohub,2013-11-03 08:32:00,
2013-11-03 03:33:00,48.9,44.1,29.86,NW,317,0.0,0.0,83,0.00,,,0.00,0.0,meteohub,2013-11-03 08:33:00,
2013-11-03 03:34:00,48.9,44.1,29.86,NW,317,0.0,0.0,83,0.00,,,0.00,0.0,meteohub,2013-11-03 08:34:00,
2013-11-03 03:35:00,48.9,44.1,29.86,NW,318,0.0,0.0,83,0.00,,,0.00,0.0,meteohub,2013-11-03 08:35:00,
2013-11-03 03:37:00,48.7,43.9,29.86,NNW,327,0.0,0.0,83,0.00,,,0.00,0.0,meteohub,2013-11-03 08:37:00,
2013-11-03 03:38:00,48.7,43.9,29.86,NNW,327,0.0,0.0,83,0.00,,,0.00,0.0,meteohub,2013-11-03 08:38:00,
2013-11-03 03:39:00,48.7,43.9,29.86,NNW,327,0.0,0.0,83,0.00,,,0.00,0.0,meteohub,2013-11-03 08:39:00,
2013-11-03 03:40:00,48.7,43.9,29.86,NNW,327,0.0,0.0,83,0.00,,,0.00,0.0,meteohub,2013-11-03 08:40:00,
2013-11-03 03:43:00,48.7,44.1,29.86,NW,325,0.0,0.0,84,0.00,,,0.00,0.0,meteohub,2013-11-03 08:43:00,
2013-11-03 03:44:00,48.7,44.1,29.86,NW,325,0.0,0.0,84,0.00,,,0.00,0.0,meteohub,2013-11-03 08:44:00,
2013-11-03 03:45:00,48.7,44.1,29.87,NW,324,0.0,0.0,84,0.00,,,0.00,0.0,meteohub,2013-11-03 08:45:00,
2013-11-03 03:46:00,48.7,44.1,29.87,NNW,337,0.0,0.0,84,0.00,,,0.00,0.0,meteohub,2013-11-03 08:46:00,
2013-11-03 03:48:00,48.7,44.1,29.87,NNW,329,0.0,0.0,84,0.00,,,0.00,0.0,meteohub,2013-11-03 08:48:00,
2013-11-03 03:49:00,48.7,44.1,29.87,NNW,330,0.0,0.0,84,0.00,,,0.00,0.0,meteohub,2013-11-03 08:49:00,
2013-11-03 03:50:00,48.7,44.1,29.87,NW,323,0.0,0.0,84,0.00,,,0.00,0.0,meteohub,2013-11-03 08:50:00,
2013-11-03 03:51:00,48.7,44.1,29.87,NW,321,0.0,0.0,84,0.00,,,0.00,0.0,meteohub,2013-11-03 08:51:00,
2013-11-03 03:52:00,48.7,44.1,29.87,NW,319,0.0,0.0,84,0.00,,,0.00,0.0,meteohub,2013-11-03 08:52:00,
2013-11-03 03:54:00,48.6,43.9,29.87,NW,321,0.0,0.0,84,0.00,,,0.00,0.0,meteohub,2013-11-03 08:54:00,
2013-11-03 03:55:00,48.6,43.9,29.87,NW,321,0.0,0.0,84,0.00,,,0.00,0.0,meteohub,2013-11-03 08:55:00,
2013-11-03 03:56:00,48.6,43.9,29.87,NNW,336,0.0,0.0,84,0.00,,,0.00,0.0,meteohub,2013-11-03 08:56:00,
2013-11-03 03:57:00,48.6,43.9,29.87,NNW,336,0.0,0.0,84,0.00,,,0.00,0.0,meteohub,2013-11-03 08:57:00,
2013-11-03 04:00:00,48.6,43.9,29.87,NNW,328,0.0,0.0,84,0.00,,,0.00,0.0,meteohub,2013-11-03 09:00:00,
2013-11-03 04:01:00,48.6,43.9,29.87,NNW,329,0.0,0.0,84,0.00,,,0.00,0.0,meteohub,2013-11-03 09:01:00,
2013-11-03 04:02:00,48.6,43.9,29.87,NNW,332,0.0,0.0,84,0.00,,,0.00,0.0,meteohub,2013-11-03 09:02:00,
2013-11-03 04:03:00,48.6,43.9,29.87,NNW,329,0.0,0.0,84,0.00,,,0.00,0.0,meteohub,2013-11-03 09:03:00,
2013-11-03 04:05:00,48.6,43.9,29.87,NNW,329,0.0,0.0,84,0.00,,,0.00,0.0,meteohub,2013-11-03 09:05:00,
2013-11-03 04:06:00,48.6,43.9,29.88,NNW,329,0.0,0.0,84,0.00,,,0.00,0.0,meteohub,2013-11-03 09:06:00,
2013-11-03 04:08:00,48.6,43.9,29.88,NNW,329,0.0,0.0,84,0.00,,,0.00,0.0,meteohub,2013-11-03 09:08:00,
2013-11-03 04:10:00,48.6,43.9,29.88,NNW,333,0.0,0.0,84,0.00,,,0.00,0.0,meteohub,2013-11-03 09:10:00,
2013-11-03 04:11:00,48.6,44.2,29.88,NNW,333,0.0,0.0,85,0.00,,,0.00,0.0,meteohub,2013-11-03 09:11:00,
2013-11-03 04:12:00,48.6,44.2,29.88,NNW,332,0.0,0.0,85,0.00,,,0.00,0.0,meteohub,2013-11-03 09:12:00,
2013-11-03 04:13:00,48.6,44.2,29.88,NNW,331,0.0,0.0,85,0.00,,,0.00,0.0,meteohub,2013-11-03 09:13:00,
2013-11-03 04:14:00,48.6,44.2,29.88,NNW,331,0.0,0.0,85,0.00,,,0.00,0.0,meteohub,2013-11-03 09:14:00,
2013-11-03 04:15:00,48.6,44.2,29.88,NW,323,0.0,0.0,85,0.00,,,0.00,0.0,meteohub,2013-11-03 09:15:00,
2013-11-03 04:16:00,48.6,44.2,29.88,NNW,333,0.0,0.0,85,0.00,,,0.00,0.0,meteohub,2013-11-03 09:16:00,
2013-11-03 04:17:00,48.6,44.2,29.88,NNW,334,0.0,0.0,85,0.00,,,0.00,0.0,meteohub,2013-11-03 09:17:00,
2013-11-03 04:19:00,48.6,44.2,29.88,NNW,333,0.0,0.0,85,0.00,,,0.00,0.0,meteohub,2013-11-03 09:19:00,
2013-11-03 04:20:00,48.6,44.2,29.88,NW,318,0.0,0.0,85,0.00,,,0.00,0.0,meteohub,2013-11-03 09:20:00,
2013-11-03 04:21:00,48.6,44.2,29.88,NW,324,0.0,0.0,85,0.00,,,0.00,0.0,meteohub,2013-11-03 09:21:00,
2013-11-03 04:22:00,48.4,44.1,29.88,NNW,331,0.0,0.0,85,0.00,,,0.00,0.0,meteohub,2013-11-03 09:22:00,
2013-11-03 04:23:00,48.4,44.1,29.88,NW,326,0.0,0.0,85,0.00,,,0.00,0.0,meteohub,2013-11-03 09:23:00,
2013-11-03 04:25:00,48.4,44.1,29.88,NNW,336,0.0,0.0,85,0.00,,,0.00,0.0,meteohub,2013-11-03 09:25:00,
2013-11-03 04:26:00,48.4,44.1,29.89,NNW,334,0.0,0.0,85,0.00,,,0.00,0.0,meteohub,2013-11-03 09:26:00,
2013-11-03 04:28:00,48.4,44.1,29.89,NNW,329,0.0,0.0,85,0.00,,,0.00,0.0,meteohub,2013-11-03 09:28:00,
2013-11-03 04:30:00,48.4,44.1,29.89,NW,319,0.0,0.0,85,0.00,,,0.00,0.0,meteohub,2013-11-03 09:30:00,
2013-11-03 04:31:00,48.4,44.1,29.89,NW,325,0.0,0.0,85,0.00,,,0.00,0.0,meteohub,2013-11-03 09:31:00,
2013-11-03 04:33:00,48.4,44.1,29.89,NNW,328,0.0,0.0,85,0.00,,,0.00,0.0,meteohub,2013-11-03 09:33:00,
2013-11-03 04:35:00,48.4,44.4,29.89,NNW,346,0.0,0.0,86,0.00,,,0.00,0.0,meteohub,2013-11-03 09:35:00,
2013-11-03 04:36:00,48.4,44.4,29.89,NNW,328,0.0,0.0,86,0.00,,,0.00,0.0,meteohub,2013-11-03 09:36:00,
2013-11-03 04:38:00,48.6,44.6,29.89,NNE,13,0.0,0.0,86,0.00,,,0.00,0.0,meteohub,2013-11-03 09:38:00,
2013-11-03 04:39:00,48.6,44.6,29.89,NNW,341,0.0,0.0,86,0.00,,,0.00,0.0,meteohub,2013-11-03 09:39:00,
2013-11-03 04:40:00,48.6,44.6,29.89,NNW,340,0.0,0.0,86,0.00,,,0.00,0.0,meteohub,2013-11-03 09:40:00,
2013-11-03 04:42:00,48.6,44.6,29.89,NNW,336,0.0,0.0,86,0.00,,,0.00,0.0,meteohub,2013-11-03 09:42:00,
2013-11-03 04:43:00,48.6,44.6,29.89,NNW,330,0.0,0.0,86,0.00,,,0.00,0.0,meteohub,2013-11-03 09:43:00,
2013-11-03 04:45:00,48.6,44.6,29.90,NNW,330,0.0,0.0,86,0.00,,,0.00,0.0,meteohub,2013-11-03 09:45:00,
2013-11-03 04:46:00,48.6,44.6,29.90,NNW,336,0.0,0.0,86,0.00,,,0.00,0.0,meteohub,2013-11-03 09:46:00,
2013-11-03 04:47:00,48.6,44.6,29.90,NW,319,0.0,0.0,86,0.00,,,0.00,0.0,meteohub,2013-11-03 09:47:00,
2013-11-03 04:49:00,48.6,44.6,29.90,North,11,0.0,0.0,86,0.00,,,0.00,0.0,meteohub,2013-11-03 09:49:00,
2013-11-03 04:50:00,48.7,44.8,29.90,NNW,335,0.0,0.0,86,0.00,,,0.00,0.0,meteohub,2013-11-03 09:50:00,
2013-11-03 04:51:00,48.7,44.8,29.90,NW,326,0.0,0.0,86,0.00,,,0.00,0.0,meteohub,2013-11-03 09:51:00,
2013-11-03 04:52:00,48.7,44.8,29.90,NNW,340,0.0,0.0,86,0.00,,,0.00,0.0,meteohub,2013-11-03 09:52:00,
2013-11-03 04:54:00,48.7,44.8,29.90,NW,326,0.0,0.0,86,0.00,,,0.00,0.0,meteohub,2013-11-03 09:54:00,
2013-11-03 04:55:00,48.7,44.8,29.90,NW,325,0.0,0.0,86,0.00,,,0.00,0.0,meteohub,2013-11-03 09:55:00,
2013-11-03 04:56:00,48.7,44.8,29.90,North,355,0.0,0.0,86,0.00,,,0.00,0.0,meteohub,2013-11-03 09:56:00,
2013-11-03 04:57:00,48.9,45.0,29.90,NNW,334,0.0,0.0,86,0.00,,,0.00,0.0,meteohub,2013-11-03 09:57:00,
2013-11-03 04:59:00,48.9,44.6,29.91,NNW,345,0.0,0.0,85,0.00,,,0.00,0.0,meteohub,2013-11-03 09:59:00,
2013-11-03 05:01:00,48.9,44.6,29.90,NNW,333,0.0,0.0,85,0.00,,,0.00,0.0,meteohub,2013-11-03 10:01:00,
2013-11-03 05:03:00,48.9,44.6,29.91,WNW,300,0.0,0.0,85,0.00,,,0.00,0.0,meteohub,2013-11-03 10:03:00,
2013-11-03 05:04:00,49.1,44.8,29.91,NNW,345,0.0,0.0,85,0.00,,,0.00,0.0,meteohub,2013-11-03 10:04:00,
2013-11-03 05:06:00,49.1,44.8,29.91,NNW,332,0.0,0.0,85,0.00,,,0.00,0.0,meteohub,2013-11-03 10:06:00,
2013-11-03 05:07:00,49.1,44.8,29.91,NNW,348,0.0,0.0,85,0.00,,,0.00,0.0,meteohub,2013-11-03 10:07:00,
2013-11-03 05:09:00,49.3,45.0,29.91,NW,325,0.0,0.0,85,0.00,,,0.00,0.0,meteohub,2013-11-03 10:09:00,
2013-11-03 05:11:00,49.3,45.0,29.91,NNW,346,0.0,0.0,85,0.00,,,0.00,0.0,meteohub,2013-11-03 10:11:00,
2013-11-03 05:12:00,49.3,44.6,29.91,NNW,337,0.0,0.0,84,0.00,,,0.00,0.0,meteohub,2013-11-03 10:12:00,
2013-11-03 05:14:00,49.3,44.6,29.91,NNW,328,0.0,0.0,84,0.00,,,0.00,0.0,meteohub,2013-11-03 10:14:00,
2013-11-03 05:15:00,49.3,44.6,29.91,North,350,0.0,0.0,84,0.00,,,0.00,0.0,meteohub,2013-11-03 10:15:00,
2013-11-03 05:16:00,49.3,44.6,29.91,NNW,342,0.0,0.0,84,0.00,,,0.00,0.0,meteohub,2013-11-03 10:16:00,
2013-11-03 05:17:00,49.3,44.6,29.91,NNW,344,0.0,0.0,84,0.00,,,0.00,0.0,meteohub,2013-11-03 10:17:00,
2013-11-03 05:18:00,49.3,44.6,29.91,NNW,347,0.0,0.0,84,0.00,,,0.00,0.0,meteohub,2013-11-03 10:18:00,
2013-11-03 05:19:00,49.3,44.6,29.91,North,0,0.0,0.0,84,0.00,,,0.00,0.0,meteohub,2013-11-03 10:19:00,
2013-11-03 05:20:00,49.3,44.6,29.91,NNW,331,0.0,0.0,84,0.00,,,0.00,0.0,meteohub,2013-11-03 10:20:00,
2013-11-03 05:21:00,49.3,44.6,29.91,NNW,329,0.0,0.0,84,0.00,,,0.00,0.0,meteohub,2013-11-03 10:21:00,
2013-11-03 05:23:00,49.3,44.6,29.91,North,0,0.0,0.0,84,0.00,,,0.00,0.0,meteohub,2013-11-03 10:23:00,
2013-11-03 05:24:00,49.3,44.6,29.91,NNW,347,0.0,0.0,84,0.00,,,0.00,0.0,meteohub,2013-11-03 10:24:00,
2013-11-03 05:26:00,49.3,44.6,29.92,NNW,340,0.0,0.0,84,0.00,,,0.00,0.0,meteohub,2013-11-03 10:26:00,
2013-11-03 05:28:00,49.3,44.6,29.92,NNW,338,0.0,0.0,84,0.00,,,0.00,0.0,meteohub,2013-11-03 10:28:00,
2013-11-03 05:29:00,49.3,44.6,29.92,NNW,340,0.0,0.0,84,0.00,,,0.00,0.0,meteohub,2013-11-03 10:29:00,
2013-11-03 05:30:00,49.3,44.6,29.92,North,0,0.0,0.0,84,0.00,,,0.00,0.0,meteohub,2013-11-03 10:30:00,
2013-11-03 05:31:00,49.3,44.6,29.92,NNW,335,0.0,0.0,84,0.00,,,0.00,0.0,meteohub,2013-11-03 10:31:00,
2013-11-03 05:33:00,49.3,44.6,29.92,NNW,333,0.0,0.0,84,0.00,,,0.00,0.0,meteohub,2013-11-03 10:33:00,
2013-11-03 05:35:00,49.3,44.6,29.92,NNW,342,0.0,0.0,84,0.00,,,0.00,0.0,meteohub,2013-11-03 10:35:00,
2013-11-03 05:36:00,49.3,44.6,29.92,NW,321,0.0,0.0,84,0.00,,,0.00,0.0,meteohub,2013-11-03 10:36:00,
2013-11-03 05:38:00,49.3,44.6,29.92,NNW,334,0.0,0.0,84,0.00,,,0.00,0.0,meteohub,2013-11-03 10:38:00,
2013-11-03 05:40:00,49.3,44.6,29.93,NNW,336,0.0,0.0,84,0.00,,,0.00,0.0,meteohub,2013-11-03 10:40:00,
2013-11-03 05:41:00,49.3,44.6,29.93,North,5,0.0,0.0,84,0.00,,,0.00,0.0,meteohub,2013-11-03 10:41:00,
2013-11-03 05:42:00,49.3,44.6,29.93,NNW,348,0.0,0.0,84,0.00,,,0.00,0.0,meteohub,2013-11-03 10:42:00,
2013-11-03 05:44:00,49.3,44.4,29.93,NNW,342,0.0,0.0,83,0.00,,,0.00,0.0,meteohub,2013-11-03 10:44:00,
2013-11-03 05:45:00,49.3,44.4,29.93,NNW,345,0.0,0.0,83,0.00,,,0.00,0.0,meteohub,2013-11-03 10:45:00,
2013-11-03 05:46:00,49.3,44.4,29.93,NW,316,0.0,0.0,83,0.00,,,0.00,0.0,meteohub,2013-11-03 10:46:00,
2013-11-03 05:47:00,49.3,44.4,29.93,NW,319,0.0,0.0,83,0.00,,,0.00,0.0,meteohub,2013-11-03 10:47:00,
2013-11-03 05:49:00,49.1,43.9,29.94,NNW,338,0.0,0.0,82,0.00,,,0.00,0.0,meteohub,2013-11-03 10:49:00,
2013-11-03 05:50:00,49.1,43.9,29.94,North,0,0.0,0.0,82,0.00,,,0.00,0.0,meteohub,2013-11-03 10:50:00,
2013-11-03 05:52:00,48.9,43.7,29.94,NW,319,0.0,0.0,82,0.00,,,0.00,0.0,meteohub,2013-11-03 10:52:00,
2013-11-03 05:53:00,48.9,43.7,29.94,NW,321,0.0,0.0,82,0.00,,,0.00,0.0,meteohub,2013-11-03 10:53:00,
2013-11-03 05:54:00,48.9,43.7,29.94,NNW,341,0.0,0.0,82,0.00,,,0.00,0.0,meteohub,2013-11-03 10:54:00,
2013-11-03 05:56:00,48.9,43.7,29.94,NNW,336,0.0,0.0,82,0.00,,,0.00,0.0,meteohub,2013-11-03 10:56:00,
2013-11-03 05:57:00,48.9,43.7,29.94,NNW,335,0.0,0.0,82,0.00,,,0.00,0.0,meteohub,2013-11-03 10:57:00,
2013-11-03 05:58:00,48.7,43.5,29.94,NNW,336,0.0,0.0,82,0.00,,,0.00,0.0,meteohub,2013-11-03 10:58:00,
2013-11-03 06:00:00,48.7,43.5,29.95,NW,323,0.0,0.0,82,0.00,,,0.00,0.0,meteohub,2013-11-03 11:00:00,
2013-11-03 06:01:00,48.7,43.5,29.95,NNW,345,0.0,0.0,82,0.00,,,0.00,0.0,meteohub,2013-11-03 11:01:00,
2013-11-03 06:02:00,48.7,43.5,29.95,NNW,348,0.0,0.0,82,0.00,,,0.00,0.0,meteohub,2013-11-03 11:02:00,
2013-11-03 06:03:00,48.7,43.5,29.95,NNW,338,0.0,0.0,82,0.00,,,0.00,0.0,meteohub,2013-11-03 11:03:00,
2013-11-03 06:04:00,48.6,43.0,29.95,North,355,0.0,0.0,81,0.00,,,0.00,0.0,meteohub,2013-11-03 11:04:00,
2013-11-03 06:05:00,48.6,43.0,29.95,NW,319,0.0,0.0,81,0.00,,,0.00,0.0,meteohub,2013-11-03 11:05:00,
2013-11-03 06:06:00,48.6,43.0,29.96,NNW,340,0.0,0.0,81,0.00,,,0.00,0.0,meteohub,2013-11-03 11:06:00,
2013-11-03 06:07:00,48.6,43.0,29.96,NW,318,0.0,0.0,81,0.00,,,0.00,0.0,meteohub,2013-11-03 11:07:00,
2013-11-03 06:08:00,48.4,42.8,29.96,WNW,300,0.0,0.0,81,0.00,,,0.00,0.0,meteohub,2013-11-03 11:08:00,
2013-11-03 06:09:00,48.4,42.8,29.96,WNW,302,0.0,0.0,81,0.00,,,0.00,0.0,meteohub,2013-11-03 11:09:00,
2013-11-03 06:11:00,48.4,42.8,29.96,NNW,344,0.0,0.0,81,0.00,,,0.00,0.0,meteohub,2013-11-03 11:11:00,
2013-11-03 06:12:00,48.4,42.8,29.96,North,355,0.0,0.0,81,0.00,,,0.00,0.0,meteohub,2013-11-03 11:12:00,
2013-11-03 06:13:00,48.4,42.8,29.96,North,355,0.0,0.0,81,0.00,,,0.00,0.0,meteohub,2013-11-03 11:13:00,
2013-11-03 06:14:00,48.2,42.6,29.96,NW,321,0.0,0.0,81,0.00,,,0.00,0.0,meteohub,2013-11-03 11:14:00,
2013-11-03 06:15:00,48.2,42.6,29.96,NNW,338,0.0,0.0,81,0.00,,,0.00,0.0,meteohub,2013-11-03 11:15:00,
2013-11-03 06:16:00,48.0,42.4,29.96,NW,325,0.0,0.0,81,0.00,,,0.00,0.0,meteohub,2013-11-03 11:16:00,
2013-11-03 06:17:00,48.0,42.1,29.96,NNW,339,0.0,0.0,80,0.00,,,0.00,0.0,meteohub,2013-11-03 11:17:00,
2013-11-03 06:18:00,48.0,42.1,29.96,NNW,333,0.0,0.0,80,0.00,,,0.00,0.0,meteohub,2013-11-03 11:18:00,
2013-11-03 06:19:00,48.0,42.1,29.96,North,355,0.0,0.0,80,0.00,,,0.00,0.0,meteohub,2013-11-03 11:19:00,
2013-11-03 06:20:00,48.0,42.1,29.96,NNW,331,0.0,0.0,80,0.00,,,0.00,0.0,meteohub,2013-11-03 11:20:00,
2013-11-03 06:21:00,48.0,42.1,29.96,NNW,341,0.0,0.0,80,0.00,,,0.00,0.0,meteohub,2013-11-03 11:21:00,
2013-11-03 06:23:00,48.0,42.1,29.96,NNW,327,0.0,0.0,80,0.00,,,0.00,0.0,meteohub,2013-11-03 11:23:00,
2013-11-03 06:24:00,47.8,41.9,29.96,WNW,302,0.0,0.0,80,0.00,,,0.00,0.0,meteohub,2013-11-03 11:24:00,
2013-11-03 06:25:00,47.8,41.9,29.96,North,355,0.0,0.0,80,0.00,,,0.00,0.0,meteohub,2013-11-03 11:25:00,
2013-11-03 06:26:00,47.8,41.9,29.97,NNW,345,0.0,0.0,80,0.00,,,0.00,0.0,meteohub,2013-11-03 11:26:00,
2013-11-03 06:27:00,47.8,41.9,29.97,NW,309,0.0,0.0,80,0.00,,,0.00,0.0,meteohub,2013-11-03 11:27:00,
2013-11-03 06:29:00,47.8,41.9,29.97,North,0,0.0,0.0,80,0.00,,,0.00,0.0,meteohub,2013-11-03 11:29:00,
2013-11-03 06:30:00,47.8,41.9,29.97,NNW,328,0.0,0.0,80,0.00,,,0.00,0.0,meteohub,2013-11-03 11:30:00,
2013-11-03 06:31:00,47.8,41.9,29.97,North,355,0.0,0.0,80,0.00,,,0.00,0.0,meteohub,2013-11-03 11:31:00,
2013-11-03 06:32:00,47.7,41.7,29.97,NNW,345,0.0,0.0,80,0.00,,,0.00,0.0,meteohub,2013-11-03 11:32:00,
2013-11-03 06:34:00,47.7,41.7,29.97,NW,317,0.0,0.0,80,0.00,,,0.00,0.0,meteohub,2013-11-03 11:34:00,
2013-11-03 06:35:00,47.7,41.7,29.97,NNW,344,0.0,0.0,80,0.00,,,0.00,0.0,meteohub,2013-11-03 11:35:00,
2013-11-03 06:36:00,47.7,41.7,29.98,NNW,348,0.0,0.0,80,0.00,,,0.00,0.0,meteohub,2013-11-03 11:36:00,
2013-11-03 06:37:00,47.7,41.7,29.98,North,355,0.0,0.0,80,0.00,,,0.00,0.0,meteohub,2013-11-03 11:37:00,
2013-11-03 06:38:00,47.7,41.7,29.98,NNW,340,0.0,0.0,80,0.00,,,0.00,0.0,meteohub,2013-11-03 11:38:00,
2013-11-03 06:39:00,47.7,41.7,29.98,NNW,342,0.0,0.0,80,0.00,,,0.00,0.0,meteohub,2013-11-03 11:39:00,
2013-11-03 06:40:00,47.7,41.7,29.98,NNW,336,0.0,0.0,80,0.00,,,0.00,0.0,meteohub,2013-11-03 11:40:00,
2013-11-03 06:43:00,47.7,41.7,29.98,NNW,327,0.0,0.0,80,0.00,,,0.00,0.0,meteohub,2013-11-03 11:43:00,
2013-11-03 06:44:00,47.7,41.7,29.98,NNW,337,0.0,0.0,80,0.00,,,0.00,0.0,meteohub,2013-11-03 11:44:00,
2013-11-03 06:45:00,47.7,41.7,29.98,North,355,0.0,0.0,80,0.00,,,0.00,0.0,meteohub,2013-11-03 11:45:00,
2013-11-03 06:46:00,47.7,41.7,29.98,NW,306,0.0,0.0,80,0.00,,,0.00,0.0,meteohub,2013-11-03 11:46:00,
2013-11-03 06:47:00,47.5,41.5,29.99,NNW,341,0.0,0.0,80,0.00,,,0.00,0.0,meteohub,2013-11-03 11:47:00,
2013-11-03 06:48:00,47.7,41.7,29.99,NW,318,0.0,0.0,80,0.00,,,0.00,0.0,meteohub,2013-11-03 11:48:00,
2013-11-03 06:49:00,47.5,41.5,29.99,NNW,333,0.0,0.0,80,0.00,,,0.00,0.0,meteohub,2013-11-03 11:49:00,
2013-11-03 06:50:00,47.5,41.5,29.99,NNW,327,0.0,0.0,80,0.00,,,0.00,0.0,meteohub,2013-11-03 11:50:00,
2013-11-03 06:51:00,47.5,41.5,29.99,NNW,344,0.0,0.0,80,0.00,,,0.00,0.0,meteohub,2013-11-03 11:51:00,
2013-11-03 06:53:00,47.5,41.5,29.99,NNW,346,0.0,0.0,80,0.00,,,0.00,0.0,meteohub,2013-11-03 11:53:00,
2013-11-03 06:54:00,47.5,41.5,29.99,NNE,15,0.0,0.0,80,0.00,,,0.00,0.0,meteohub,2013-11-03 11:54:00,
2013-11-03 06:55:00,47.5,41.5,29.99,North,355,0.0,0.0,80,0.00,,,0.00,0.0,meteohub,2013-11-03 11:55:00,
2013-11-03 06:56:00,47.5,41.5,29.99,NW,317,0.0,0.0,80,0.00,,,0.00,0.0,meteohub,2013-11-03 11:56:00,
2013-11-03 06:57:00,47.5,41.5,29.99,NNW,333,0.0,0.0,80,0.00,,,0.00,0.0,meteohub,2013-11-03 11:57:00,
2013-11-03 06:59:00,47.5,41.5,29.99,North,11,0.0,0.0,80,0.00,,,0.00,0.0,meteohub,2013-11-03 11:59:00,
2013-11-03 07:00:00,47.5,41.5,29.99,NNW,327,0.0,0.0,80,0.00,,,0.00,0.0,meteohub,2013-11-03 12:00:00,
2013-11-03 07:01:00,47.5,41.5,29.99,NNW,341,0.0,0.0,80,0.00,,,0.00,5.0,meteohub,2013-11-03 12:01:00,
2013-11-03 07:04:00,47.5,41.5,30.00,North,5,0.0,0.0,80,0.00,,,0.00,7.0,meteohub,2013-11-03 12:04:00,
2013-11-03 07:05:00,47.5,41.5,30.00,North,0,0.0,0.0,80,0.00,,,0.00,7.0,meteohub,2013-11-03 12:05:00,
2013-11-03 07:06:00,47.5,41.5,30.00,NNE,19,0.0,0.0,80,0.00,,,0.00,7.0,meteohub,2013-11-03 12:06:00,
2013-11-03 07:07:00,47.5,41.5,30.00,North,0,0.0,0.0,80,0.00,,,0.00,7.0,meteohub,2013-11-03 12:07:00,
2013-11-03 07:09:00,47.5,41.5,30.00,NNW,328,0.0,0.0,80,0.00,,,0.00,9.0,meteohub,2013-11-03 12:09:00,
2013-11-03 07:10:00,47.5,41.5,30.00,NNW,344,0.0,0.0,80,0.00,,,0.00,9.0,meteohub,2013-11-03 12:10:00,
2013-11-03 07:11:00,47.5,41.5,30.00,NW,319,0.0,0.0,80,0.00,,,0.00,11.0,meteohub,2013-11-03 12:11:00,
2013-11-03 07:12:00,47.5,41.5,30.00,North,349,0.0,0.0,80,0.00,,,0.00,11.0,meteohub,2013-11-03 12:12:00,
2013-11-03 07:15:00,47.3,41.4,30.00,North,0,0.0,0.0,80,0.00,,,0.00,11.0,meteohub,2013-11-03 12:15:00,
2013-11-03 07:16:00,47.5,41.5,30.00,North,355,0.0,0.0,80,0.00,,,0.00,12.0,meteohub,2013-11-03 12:16:00,
2013-11-03 07:17:00,47.5,41.4,30.00,NW,325,0.0,0.0,79,0.00,,,0.00,12.0,meteohub,2013-11-03 12:17:00,
2013-11-03 07:21:00,47.3,41.4,30.01,North,350,0.0,0.0,80,0.00,,,0.00,12.0,meteohub,2013-11-03 12:21:00,
2013-11-03 07:22:00,47.3,41.4,30.01,NNW,331,0.0,0.0,80,0.00,,,0.00,12.0,meteohub,2013-11-03 12:22:00,
2013-11-03 07:26:00,47.3,41.2,30.01,North,355,0.0,0.0,79,0.00,,,0.00,12.0,meteohub,2013-11-03 12:26:00,
2013-11-03 07:27:00,47.3,41.2,30.01,North,350,0.0,0.0,79,0.00,,,0.00,14.0,meteohub,2013-11-03 12:27:00,
2013-11-03 07:28:00,47.3,41.2,30.01,North,5,0.0,0.0,79,0.00,,,0.00,14.0,meteohub,2013-11-03 12:28:00,
2013-11-03 07:31:00,47.3,41.2,30.01,North,355,0.0,0.0,79,0.00,,,0.00,16.0,meteohub,2013-11-03 12:31:00,
2013-11-03 07:32:00,47.3,41.2,30.01,NNE,19,0.0,0.0,79,0.00,,,0.00,23.0,meteohub,2013-11-03 12:32:00,
2013-11-03 07:33:00,47.3,41.2,30.01,North,5,0.0,0.0,79,0.00,,,0.00,25.0,meteohub,2013-11-03 12:33:00,
2013-11-03 07:34:00,47.3,41.2,30.01,NW,323,0.0,0.0,79,0.00,,,0.00,28.0,meteohub,2013-11-03 12:34:00,
2013-11-03 07:36:00,47.3,41.2,30.01,NNW,347,0.0,0.0,79,0.00,,,0.00,32.0,meteohub,2013-11-03 12:36:00,
2013-11-03 07:37:00,47.3,41.2,30.01,NNW,348,0.0,0.0,79,0.00,,,0.00,32.0,meteohub,2013-11-03 12:37:00,
2013-11-03 07:38:00,47.3,41.2,30.01,North,349,0.0,0.0,79,0.00,,,0.00,33.0,meteohub,2013-11-03 12:38:00,
2013-11-03 07:39:00,47.3,41.2,30.01,North,355,0.0,0.0,79,0.00,,,0.00,33.0,meteohub,2013-11-03 12:39:00,
2013-11-03 07:41:00,47.3,41.2,30.02,NNE,12,0.0,0.0,79,0.00,,,0.00,33.0,meteohub,2013-11-03 12:41:00,
2013-11-03 07:42:00,47.5,41.4,30.02,North,11,0.0,0.0,79,0.00,,,0.00,35.0,meteohub,2013-11-03 12:42:00,
2013-11-03 07:43:00,47.5,41.4,30.02,North,355,0.0,0.0,79,0.00,,,0.00,42.0,meteohub,2013-11-03 12:43:00,
2013-11-03 07:45:00,47.5,41.4,30.02,North,10,0.0,0.0,79,0.00,,,0.00,46.0,meteohub,2013-11-03 12:45:00,
2013-11-03 07:46:00,47.5,41.4,30.02,NNE,24,0.0,0.0,79,0.00,,,0.00,51.0,meteohub,2013-11-03 12:46:00,
2013-11-03 07:47:00,47.5,41.4,30.02,North,355,0.0,0.0,79,0.00,,,0.00,60.0,meteohub,2013-11-03 12:47:00,
2013-11-03 07:48:00,47.5,41.4,30.02,North,5,0.0,0.0,79,0.00,,,0.00,60.0,meteohub,2013-11-03 12:48:00,
2013-11-03 07:50:00,47.5,41.4,30.03,North,355,0.0,0.0,79,0.00,,,0.00,74.0,meteohub,2013-11-03 12:50:00,
2013-11-03 07:51:00,47.5,41.4,30.03,North,350,0.0,0.0,79,0.00,,,0.00,76.0,meteohub,2013-11-03 12:51:00,
2013-11-03 07:52:00,47.5,41.4,30.03,WNW,300,0.0,0.0,79,0.00,,,0.00,76.0,meteohub,2013-11-03 12:52:00,
2013-11-03 07:53:00,47.5,41.0,30.03,North,11,0.0,0.0,78,0.00,,,0.00,72.0,meteohub,2013-11-03 12:53:00,
2013-11-03 07:54:00,47.5,41.0,30.03,North,5,0.0,0.0,78,0.00,,,0.00,65.0,meteohub,2013-11-03 12:54:00,
2013-11-03 07:56:00,47.5,41.0,30.04,NNW,347,0.0,0.0,78,0.00,,,0.00,53.0,meteohub,2013-11-03 12:56:00,
2013-11-03 07:58:00,47.5,41.0,30.04,NNW,348,0.0,0.0,78,0.00,,,0.00,44.0,meteohub,2013-11-03 12:58:00,
2013-11-03 07:59:00,47.5,41.0,30.04,NNW,337,0.0,0.0,78,0.00,,,0.00,37.0,meteohub,2013-11-03 12:59:00,
2013-11-03 08:00:00,47.5,41.0,30.04,NNW,334,0.0,0.0,78,0.00,,,0.00,35.0,meteohub,2013-11-03 13:00:00,
2013-11-03 08:01:00,47.5,41.0,30.04,North,5,0.0,0.0,78,0.00,,,0.00,33.0,meteohub,2013-11-03 13:01:00,
2013-11-03 08:03:00,47.5,41.0,30.04,NNE,24,0.0,0.0,78,0.00,,,0.00,33.0,meteohub,2013-11-03 13:03:00,
2013-11-03 08:04:00,47.5,40.6,30.04,NE,34,0.0,0.0,77,0.00,,,0.00,33.0,meteohub,2013-11-03 13:04:00,
2013-11-03 08:05:00,47.5,40.6,30.04,NNE,18,0.0,0.0,77,0.00,,,0.00,35.0,meteohub,2013-11-03 13:05:00,
2013-11-03 08:06:00,47.5,40.6,30.04,North,355,0.0,0.0,77,0.00,,,0.00,33.0,meteohub,2013-11-03 13:06:00,
2013-11-03 08:09:00,47.5,40.6,30.05,North,355,0.0,0.0,77,0.00,,,0.00,30.0,meteohub,2013-11-03 13:09:00,
2013-11-03 08:10:00,47.5,40.6,30.05,NNW,347,0.0,0.0,77,0.00,,,0.00,30.0,meteohub,2013-11-03 13:10:00,
2013-11-03 08:11:00,47.5,40.6,30.05,North,355,0.0,0.0,77,0.00,,,0.00,28.0,meteohub,2013-11-03 13:11:00,
2013-11-03 08:12:00,47.5,40.6,30.05,NE,46,0.0,0.0,77,0.00,,,0.00,28.0,meteohub,2013-11-03 13:12:00,
2013-11-03 08:14:00,47.3,39.7,30.05,NW,326,0.0,0.0,75,0.00,,,0.00,28.0,meteohub,2013-11-03 13:14:00,
2013-11-03 08:15:00,47.3,39.7,30.05,NNW,331,0.0,0.0,75,0.00,,,0.00,28.0,meteohub,2013-11-03 13:15:00,
2013-11-03 08:17:00,47.1,39.6,30.05,North,9,0.0,0.0,75,0.00,,,0.00,30.0,meteohub,2013-11-03 13:17:00,
2013-11-03 08:19:00,47.1,39.6,30.05,North,11,0.0,0.0,75,0.00,,,0.00,37.0,meteohub,2013-11-03 13:19:00,
2013-11-03 08:20:00,47.1,39.6,30.05,NNW,331,0.0,0.0,75,0.00,,,0.00,37.0,meteohub,2013-11-03 13:20:00,
2013-11-03 08:21:00,47.1,39.6,30.05,NNE,15,0.0,0.0,75,0.00,,,0.00,39.0,meteohub,2013-11-03 13:21:00,
2013-11-03 08:22:00,47.1,39.6,30.05,North,355,0.0,0.0,75,0.00,,,0.00,44.0,meteohub,2013-11-03 13:22:00,
2013-11-03 08:23:00,47.1,39.6,30.05,North,349,0.0,0.0,75,0.00,,,0.00,49.0,meteohub,2013-11-03 13:23:00,
2013-11-03 08:25:00,47.1,39.6,30.05,NE,34,0.0,0.0,75,0.00,,,0.00,63.0,meteohub,2013-11-03 13:25:00,
2013-11-03 08:26:00,47.1,39.6,30.05,North,5,0.0,0.0,75,0.00,,,0.00,69.0,meteohub,2013-11-03 13:26:00,
2013-11-03 08:27:00,47.1,39.6,30.05,NNW,334,0.0,0.0,75,0.00,,,0.00,77.0,meteohub,2013-11-03 13:27:00,
2013-11-03 08:28:00,47.1,39.6,30.05,NNE,15,0.0,0.0,75,0.00,,,0.00,77.0,meteohub,2013-11-03 13:28:00,
2013-11-03 08:29:00,47.1,39.6,30.05,North,11,0.0,0.0,75,0.00,,,0.00,83.0,meteohub,2013-11-03 13:29:00,
2013-11-03 08:30:00,47.1,39.6,30.05,NNE,13,0.0,0.0,75,0.00,,,0.00,83.0,meteohub,2013-11-03 13:30:00,
2013-11-03 08:31:00,47.1,39.6,30.05,NNE,26,0.0,0.0,75,0.00,,,0.00,84.0,meteohub,2013-11-03 13:31:00,
2013-11-03 08:33:00,47.3,39.7,30.06,NW,324,0.0,0.0,75,0.00,,,0.00,91.0,meteohub,2013-11-03 13:33:00,
2013-11-03 08:35:00,47.3,39.7,30.06,North,5,0.0,0.0,75,0.00,,,0.00,109.0,meteohub,2013-11-03 13:35:00,
2013-11-03 08:37:00,47.5,40.3,30.06,North,355,0.0,0.0,76,0.00,,,0.00,109.0,meteohub,2013-11-03 13:37:00,
2013-11-03 08:38:00,47.5,40.3,30.06,NNW,348,0.0,0.0,76,0.00,,,0.00,109.0,meteohub,2013-11-03 13:38:00,
2013-11-03 08:41:00,47.7,40.1,30.06,ENE,60,0.0,0.0,75,0.00,,,0.00,97.0,meteohub,2013-11-03 13:41:00,
2013-11-03 08:43:00,47.7,40.1,30.06,North,350,0.0,0.0,75,0.00,,,0.00,86.0,meteohub,2013-11-03 13:43:00,
2013-11-03 08:44:00,47.7,40.1,30.06,NNE,15,0.0,0.0,75,0.00,,,0.00,83.0,meteohub,2013-11-03 13:44:00,
2013-11-03 08:46:00,47.7,40.1,30.06,NNE,13,0.0,0.0,75,0.00,,,0.00,81.0,meteohub,2013-11-03 13:46:00,
2013-11-03 08:48:00,47.7,40.1,30.06,NNE,15,0.0,0.0,75,0.00,,,0.00,79.0,meteohub,2013-11-03 13:48:00,
2013-11-03 08:49:00,47.7,40.1,30.07,North,0,0.0,0.0,75,0.00,,,0.00,83.0,meteohub,2013-11-03 13:49:00,
2013-11-03 08:50:00,47.7,40.1,30.07,NNE,19,0.0,0.0,75,0.00,,,0.00,95.0,meteohub,2013-11-03 13:50:00,
2013-11-03 08:51:00,47.7,40.1,30.07,NNW,327,0.0,0.0,75,0.00,,,0.00,95.0,meteohub,2013-11-03 13:51:00,
2013-11-03 08:54:00,47.8,40.3,30.07,NNW,348,0.0,0.0,75,0.00,,,0.00,98.0,meteohub,2013-11-03 13:54:00,
2013-11-03 08:55:00,47.8,40.6,30.07,NNE,19,0.0,0.0,76,0.00,,,0.00,104.0,meteohub,2013-11-03 13:55:00,
2013-11-03 08:56:00,47.8,40.6,30.07,North,350,0.0,0.0,76,0.00,,,0.00,105.0,meteohub,2013-11-03 13:56:00,
2013-11-03 08:57:00,48.0,40.5,30.08,NE,36,0.0,0.0,75,0.00,,,0.00,98.0,meteohub,2013-11-03 13:57:00,
2013-11-03 09:00:00,48.0,40.5,30.08,NNW,337,0.0,0.0,75,0.00,,,0.00,97.0,meteohub,2013-11-03 14:00:00,
2013-11-03 09:01:00,48.0,40.5,30.08,NNE,33,0.0,0.0,75,0.00,,,0.00,102.0,meteohub,2013-11-03 14:01:00,
2013-11-03 09:03:00,48.0,40.5,30.08,NNE,17,0.0,0.0,75,0.00,,,0.00,105.0,meteohub,2013-11-03 14:03:00,
2013-11-03 09:05:00,48.0,40.1,30.08,NNW,330,0.0,0.0,74,0.00,,,0.00,114.0,meteohub,2013-11-03 14:05:00,
2013-11-03 09:06:00,48.0,40.1,30.08,NNW,348,0.0,0.0,74,0.00,,,0.00,125.0,meteohub,2013-11-03 14:06:00,
2013-11-03 09:07:00,48.0,40.5,30.08,NNW,340,0.0,0.0,75,0.00,,,0.00,130.0,meteohub,2013-11-03 14:07:00,
2013-11-03 09:08:00,48.0,40.5,30.08,NNE,12,0.0,0.0,75,0.00,,,0.00,132.0,meteohub,2013-11-03 14:08:00,
2013-11-03 09:11:00,48.0,40.1,30.08,North,355,0.0,0.0,74,0.00,,,0.00,142.0,meteohub,2013-11-03 14:11:00,
2013-11-03 09:12:00,48.0,40.1,30.08,NNW,348,0.0,0.0,74,0.00,,,0.00,146.0,meteohub,2013-11-03 14:12:00,
2013-11-03 09:13:00,48.0,40.1,30.08,NNW,348,0.0,0.0,74,0.00,,,0.00,146.0,meteohub,2013-11-03 14:13:00,
2013-11-03 09:14:00,48.2,40.6,30.08,North,0,0.0,0.0,75,0.00,,,0.00,149.0,meteohub,2013-11-03 14:14:00,
2013-11-03 09:17:00,48.4,40.5,30.09,NNE,31,0.0,0.0,74,0.00,,,0.00,178.0,meteohub,2013-11-03 14:17:00,
2013-11-03 09:18:00,48.4,40.5,30.09,North,11,0.0,0.0,74,0.00,,,0.00,188.0,meteohub,2013-11-03 14:18:00,
2013-11-03 09:19:00,48.4,40.5,30.09,NNE,12,0.0,0.0,74,0.00,,,0.00,244.0,meteohub,2013-11-03 14:19:00,
2013-11-03 09:22:00,48.6,40.3,30.09,North,351,0.0,0.0,73,0.00,,,0.00,218.0,meteohub,2013-11-03 14:22:00,
2013-11-03 09:23:00,48.6,40.3,30.09,North,355,0.0,0.0,73,0.00,,,0.00,197.0,meteohub,2013-11-03 14:23:00,
2013-11-03 09:24:00,48.7,40.1,30.09,NW,311,0.0,0.0,72,0.00,,,0.00,174.0,meteohub,2013-11-03 14:24:00,
2013-11-03 09:28:00,48.7,40.5,30.09,NW,323,0.0,0.0,73,0.00,,,0.00,151.0,meteohub,2013-11-03 14:28:00,
2013-11-03 09:29:00,48.9,40.3,30.09,NNW,340,0.0,0.0,72,0.00,,,0.00,178.0,meteohub,2013-11-03 14:29:00,
2013-11-03 09:33:00,48.9,40.3,30.09,North,0,0.0,0.0,72,0.00,,,0.00,199.0,meteohub,2013-11-03 14:33:00,
2013-11-03 09:34:00,48.9,40.3,30.09,NNE,20,0.0,0.0,72,0.00,,,0.00,197.0,meteohub,2013-11-03 14:34:00,
2013-11-03 09:35:00,48.9,40.3,30.10,NNW,334,0.0,0.0,72,0.00,,,0.00,192.0,meteohub,2013-11-03 14:35:00,
2013-11-03 09:39:00,49.3,40.6,30.10,NNE,24,0.0,0.0,72,0.00,,,0.00,185.0,meteohub,2013-11-03 14:39:00,
2013-11-03 09:40:00,49.3,40.3,30.10,North,0,0.0,0.0,71,0.00,,,0.00,188.0,meteohub,2013-11-03 14:40:00,
2013-11-03 09:44:00,49.1,40.1,30.10,NW,323,10.0,0.0,71,0.00,,,0.00,190.0,meteohub,2013-11-03 14:44:00,
2013-11-03 09:45:00,49.1,40.1,30.10,NNW,345,9.0,18.0,71,0.00,,,0.00,197.0,meteohub,2013-11-03 14:45:00,
2013-11-03 09:46:00,49.1,40.1,30.10,North,5,13.0,18.0,71,0.00,,,0.00,190.0,meteohub,2013-11-03 14:46:00,
2013-11-03 09:49:00,48.9,39.9,30.10,North,351,10.0,18.0,71,0.00,,,0.00,229.0,meteohub,2013-11-03 14:49:00,
2013-11-03 09:50:00,49.1,40.1,30.10,NW,324,11.0,18.0,71,0.00,,,0.00,229.0,meteohub,2013-11-03 14:50:00,
2013-11-03 09:51:00,49.1,40.1,30.10,NNW,329,9.0,18.0,71,0.00,,,0.00,221.0,meteohub,2013-11-03 14:51:00,
2013-11-03 09:54:00,49.3,39.9,30.10,North,5,9.0,18.0,70,0.00,,,0.00,213.0,meteohub,2013-11-03 14:54:00,
2013-11-03 09:55:00,49.3,39.9,30.10,NW,321,11.0,18.0,70,0.00,,,0.00,204.0,meteohub,2013-11-03 14:55:00,
2013-11-03 09:56:00,49.3,39.9,30.10,NNW,342,13.0,18.0,70,0.00,,,0.00,204.0,meteohub,2013-11-03 14:56:00,
2013-11-03 09:57:00,49.3,40.3,30.10,NNW,327,8.0,18.0,71,0.00,,,0.00,204.0,meteohub,2013-11-03 14:57:00,
2013-11-03 09:59:00,49.3,39.9,30.11,NNW,327,12.0,18.0,70,0.00,,,0.00,183.0,meteohub,2013-11-03 14:59:00,
2013-11-03 10:00:00,49.3,39.9,30.11,North,355,8.0,17.0,70,0.00,,,0.00,183.0,meteohub,2013-11-03 15:00:00,
2013-11-03 10:02:00,49.3,39.9,30.10,NNE,12,10.0,17.0,70,0.00,,,0.00,183.0,meteohub,2013-11-03 15:02:00,
2013-11-03 10:05:00,49.3,39.9,30.11,NW,317,11.0,18.0,70,0.00,,,0.00,199.0,meteohub,2013-11-03 15:05:00,
2013-11-03 10:06:00,49.3,39.9,30.11,North,355,9.0,18.0,70,0.00,,,0.00,206.0,meteohub,2013-11-03 15:06:00,
2013-11-03 10:07:00,49.3,40.3,30.11,North,355,13.0,18.0,71,0.00,,,0.00,199.0,meteohub,2013-11-03 15:07:00,
2013-11-03 10:08:00,49.3,39.9,30.11,NNE,20,5.0,18.0,70,0.00,,,0.00,202.0,meteohub,2013-11-03 15:08:00,
2013-11-03 10:11:00,49.3,39.9,30.11,NW,326,8.0,18.0,70,0.00,,,0.00,207.0,meteohub,2013-11-03 15:11:00,
2013-11-03 10:12:00,49.5,40.1,30.11,NNW,338,9.0,18.0,70,0.00,,,0.00,200.0,meteohub,2013-11-03 15:12:00,
2013-11-03 10:13:00,49.5,40.5,30.12,North,0,14.0,18.0,71,0.00,,,0.00,202.0,meteohub,2013-11-03 15:13:00,
2013-11-03 10:14:00,49.5,40.5,30.12,NW,326,9.0,18.0,71,0.00,,,0.00,220.0,meteohub,2013-11-03 15:14:00,
2013-11-03 10:16:00,49.5,40.1,30.12,NW,323,11.0,16.0,70,0.00,,,0.00,237.0,meteohub,2013-11-03 15:16:00,
2013-11-03 10:18:00,49.6,40.3,30.12,NNW,341,8.0,16.0,70,0.00,,,0.00,276.0,meteohub,2013-11-03 15:18:00,
2013-11-03 10:19:00,49.6,40.6,30.12,NW,307,7.0,16.0,71,0.00,,,0.00,292.0,meteohub,2013-11-03 15:19:00,
2013-11-03 10:20:00,49.8,41.2,30.12,NNW,327,5.0,16.0,72,0.00,,,0.00,294.0,meteohub,2013-11-03 15:20:00,
2013-11-03 10:21:00,49.8,41.2,30.12,North,0,13.0,16.0,72,0.00,,,0.00,364.0,meteohub,2013-11-03 15:21:00,
2013-11-03 10:23:00,50.2,40.8,30.12,North,355,12.0,16.0,70,0.00,,,0.00,278.0,meteohub,2013-11-03 15:23:00,
2013-11-03 10:25:00,50.2,40.5,30.12,NNW,347,12.0,20.0,69,0.00,,,0.00,239.0,meteohub,2013-11-03 15:25:00,
2013-11-03 10:26:00,50.2,40.5,30.12,NW,325,5.0,20.0,69,0.00,,,0.00,248.0,meteohub,2013-11-03 15:26:00,
2013-11-03 10:27:00,50.2,40.5,30.12,NNW,327,14.0,20.0,69,0.00,,,0.00,248.0,meteohub,2013-11-03 15:27:00,
2013-11-03 10:28:00,50.2,40.5,30.12,North,355,8.0,20.0,69,0.00,,,0.00,216.0,meteohub,2013-11-03 15:28:00,
2013-11-03 10:29:00,50.2,40.5,30.12,NNW,344,5.0,20.0,69,0.00,,,0.00,206.0,meteohub,2013-11-03 15:29:00,
2013-11-03 10:30:00,50.2,40.5,30.12,NNE,12,13.0,20.0,69,0.00,,,0.00,211.0,meteohub,2013-11-03 15:30:00,
2013-11-03 10:31:00,50.2,40.5,30.12,North,355,10.0,20.0,69,0.00,,,0.00,193.0,meteohub,2013-11-03 15:31:00,
2013-11-03 10:32:00,50.2,40.5,30.12,North,5,9.0,20.0,69,0.00,,,0.00,193.0,meteohub,2013-11-03 15:32:00,
2013-11-03 10:34:00,50.2,40.5,30.12,NNE,31,9.0,20.0,69,0.00,,,0.00,174.0,meteohub,2013-11-03 15:34:00,
2013-11-03 10:35:00,50.0,39.9,30.12,North,5,19.0,20.0,68,0.00,,,0.00,167.0,meteohub,2013-11-03 15:35:00,
2013-11-03 10:37:00,49.8,40.1,30.13,NNW,345,13.0,20.0,69,0.00,,,0.00,176.0,meteohub,2013-11-03 15:37:00,
2013-11-03 10:39:00,49.6,39.9,30.13,North,349,12.0,20.0,69,0.00,,,0.00,200.0,meteohub,2013-11-03 15:39:00,
2013-11-03 10:40:00,49.5,39.7,30.13,North,351,8.0,19.0,69,0.00,,,0.00,204.0,meteohub,2013-11-03 15:40:00,
2013-11-03 10:42:00,49.5,40.1,30.13,NW,319,14.0,19.0,70,0.00,,,0.00,190.0,meteohub,2013-11-03 15:42:00,
2013-11-03 10:43:00,49.5,40.1,30.13,NW,316,8.0,19.0,70,0.00,,,0.00,165.0,meteohub,2013-11-03 15:43:00,
2013-11-03 10:44:00,49.5,40.1,30.13,NNW,340,8.0,19.0,70,0.00,,,0.00,148.0,meteohub,2013-11-03 15:44:00,
2013-11-03 10:46:00,49.5,40.1,30.13,NW,311,11.0,19.0,70,0.00,,,0.00,114.0,meteohub,2013-11-03 15:46:00,
2013-11-03 10:47:00,49.3,39.6,30.13,NNW,335,10.0,19.0,69,0.00,,,0.00,111.0,meteohub,2013-11-03 15:47:00,
2013-11-03 10:49:00,49.3,39.9,30.13,NNE,13,14.0,19.0,70,0.00,,,0.00,123.0,meteohub,2013-11-03 15:49:00,
2013-11-03 10:50:00,49.3,39.9,30.13,NNW,338,12.0,17.0,70,0.00,,,0.00,132.0,meteohub,2013-11-03 15:50:00,
2013-11-03 10:51:00,49.3,39.9,30.13,NNW,331,15.0,17.0,70,0.00,,,0.00,142.0,meteohub,2013-11-03 15:51:00,
2013-11-03 10:52:00,49.3,39.9,30.13,NW,325,6.0,17.0,70,0.00,,,0.00,155.0,meteohub,2013-11-03 15:52:00,
2013-11-03 10:55:00,49.3,40.3,30.13,NNW,338,11.0,17.0,71,0.00,,,0.00,178.0,meteohub,2013-11-03 15:55:00,
2013-11-03 10:56:00,49.3,40.3,30.13,NNW,348,13.0,17.0,71,0.00,,,0.00,178.0,meteohub,2013-11-03 15:56:00,
2013-11-03 10:57:00,49.3,40.3,30.13,NNW,342,12.0,17.0,71,0.00,,,0.00,167.0,meteohub,2013-11-03 15:57:00,
2013-11-03 11:00:00,48.9,39.6,30.13,North,0,10.0,20.0,70,0.00,,,0.00,135.0,meteohub,2013-11-03 16:00:00,
2013-11-03 11:02:00,48.9,39.9,30.13,WNW,300,10.0,20.0,71,0.00,,,0.00,139.0,meteohub,2013-11-03 16:02:00,
2013-11-03 11:03:00,48.9,39.9,30.13,NNW,341,10.0,20.0,71,0.00,,,0.00,142.0,meteohub,2013-11-03 16:03:00,
2013-11-03 11:06:00,48.9,39.6,30.14,North,355,8.0,20.0,70,0.00,,,0.00,130.0,meteohub,2013-11-03 16:06:00,
2013-11-03 11:07:00,48.9,39.6,30.14,NNW,344,9.0,20.0,70,0.00,,,0.00,121.0,meteohub,2013-11-03 16:07:00,
2013-11-03 11:08:00,48.9,39.6,30.14,North,349,10.0,20.0,70,0.00,,,0.00,127.0,meteohub,2013-11-03 16:08:00,
2013-11-03 11:09:00,48.9,39.6,30.14,NW,325,5.0,20.0,70,0.00,,,0.00,144.0,meteohub,2013-11-03 16:09:00,
2013-11-03 11:11:00,48.9,39.9,30.14,NNW,335,9.0,20.0,71,0.00,,,0.00,172.0,meteohub,2013-11-03 16:11:00,
2013-11-03 11:12:00,48.9,39.9,30.14,North,355,11.0,20.0,71,0.00,,,0.00,172.0,meteohub,2013-11-03 16:12:00,
2013-11-03 11:13:00,48.9,39.9,30.14,NNE,15,14.0,20.0,71,0.00,,,0.00,200.0,meteohub,2013-11-03 16:13:00,
2013-11-03 11:14:00,48.9,39.9,30.14,NNW,342,10.0,20.0,71,0.00,,,0.00,193.0,meteohub,2013-11-03 16:14:00,
2013-11-03 11:16:00,48.9,39.6,30.14,North,0,13.0,16.0,70,0.00,,,0.00,132.0,meteohub,2013-11-03 16:16:00,
2013-11-03 11:17:00,48.9,39.6,30.14,North,5,8.0,16.0,70,0.00,,,0.00,132.0,meteohub,2013-11-03 16:17:00,
2013-11-03 11:18:00,48.9,39.6,30.14,North,5,19.0,19.0,70,0.00,,,0.00,111.0,meteohub,2013-11-03 16:18:00,
2013-11-03 11:19:00,48.9,39.6,30.14,NNE,14,13.0,16.0,70,0.00,,,0.00,105.0,meteohub,2013-11-03 16:19:00,
2013-11-03 11:20:00,48.7,39.0,30.14,NNW,348,13.0,20.0,69,0.00,,,0.00,105.0,meteohub,2013-11-03 16:20:00,
2013-11-03 11:22:00,48.7,39.4,30.14,North,9,11.0,20.0,70,0.00,,,0.00,111.0,meteohub,2013-11-03 16:22:00,
2013-11-03 11:23:00,48.6,39.2,30.14,NNW,338,13.0,20.0,70,0.00,,,0.00,114.0,meteohub,2013-11-03 16:23:00,
2013-11-03 11:25:00,48.6,39.2,30.14,NNW,340,6.0,20.0,70,0.00,,,0.00,169.0,meteohub,2013-11-03 16:25:00,
2013-11-03 11:26:00,48.6,39.9,30.14,NNW,348,12.0,20.0,72,0.00,,,0.00,169.0,meteohub,2013-11-03 16:26:00,
2013-11-03 11:27:00,48.6,39.6,30.14,North,5,13.0,20.0,71,0.00,,,0.00,234.0,meteohub,2013-11-03 16:27:00,
2013-11-03 11:28:00,48.6,39.2,30.14,North,350,9.0,20.0,70,0.00,,,0.00,213.0,meteohub,2013-11-03 16:28:00,
2013-11-03 11:29:00,48.6,39.2,30.14,North,349,9.0,20.0,70,0.00,,,0.00,213.0,meteohub,2013-11-03 16:29:00,
2013-11-03 11:30:00,48.6,39.6,30.14,NNW,348,15.0,20.0,71,0.00,,,0.00,207.0,meteohub,2013-11-03 16:30:00,
2013-11-03 11:31:00,48.6,39.2,30.14,North,355,5.0,20.0,70,0.00,,,0.00,197.0,meteohub,2013-11-03 16:31:00,
2013-11-03 11:33:00,48.7,39.4,30.13,North,351,10.0,20.0,70,0.00,,,0.00,197.0,meteohub,2013-11-03 16:33:00,
2013-11-03 11:34:00,48.7,39.4,30.13,NNW,329,10.0,20.0,70,0.00,,,0.00,111.0,meteohub,2013-11-03 16:34:00,
2013-11-03 11:35:00,48.7,39.4,30.13,NNE,16,5.0,18.0,70,0.00,,,0.00,111.0,meteohub,2013-11-03 16:35:00,
2013-11-03 11:36:00,48.7,39.4,30.13,NW,306,8.0,18.0,70,0.00,,,0.00,111.0,meteohub,2013-11-03 16:36:00,
2013-11-03 11:37:00,48.7,39.4,30.13,North,355,12.0,18.0,70,0.00,,,0.00,144.0,meteohub,2013-11-03 16:37:00,
2013-11-03 11:38:00,48.7,39.4,30.13,NNW,348,6.0,18.0,70,0.00,,,0.00,149.0,meteohub,2013-11-03 16:38:00,
2013-11-03 11:39:00,48.7,39.4,30.13,NNW,333,11.0,18.0,70,0.00,,,0.00,162.0,meteohub,2013-11-03 16:39:00,
2013-11-03 11:40:00,48.7,39.7,30.14,NW,313,6.0,16.0,71,0.00,,,0.00,172.0,meteohub,2013-11-03 16:40:00,
2013-11-03 11:42:00,48.9,39.6,30.13,North,350,6.0,16.0,70,0.00,,,0.00,146.0,meteohub,2013-11-03 16:42:00,
2013-11-03 11:43:00,49.1,40.1,30.13,NW,326,11.0,16.0,71,0.00,,,0.00,195.0,meteohub,2013-11-03 16:43:00,
2013-11-03 11:44:00,49.1,40.1,30.13,NNW,342,5.0,16.0,71,0.00,,,0.00,225.0,meteohub,2013-11-03 16:44:00,
2013-11-03 11:46:00,49.3,39.9,30.13,NNW,331,6.0,15.0,70,0.00,,,0.00,144.0,meteohub,2013-11-03 16:46:00,
2013-11-03 11:48:00,49.5,40.1,30.14,North,11,13.0,15.0,70,0.00,,,0.00,183.0,meteohub,2013-11-03 16:48:00,
2013-11-03 11:49:00,49.5,39.7,30.14,NNW,348,12.0,15.0,69,0.00,,,0.00,127.0,meteohub,2013-11-03 16:49:00,
2013-11-03 11:52:00,49.6,39.9,30.14,NNW,342,6.0,16.0,69,0.00,,,0.00,169.0,meteohub,2013-11-03 16:52:00,
2013-11-03 11:53:00,49.6,39.9,30.14,North,350,4.0,16.0,69,0.00,,,0.00,163.0,meteohub,2013-11-03 16:53:00,
2013-11-03 11:54:00,49.8,40.1,30.14,NNE,22,6.0,16.0,69,0.00,,,0.00,176.0,meteohub,2013-11-03 16:54:00,
2013-11-03 11:55:00,49.8,40.1,30.14,NNW,329,10.0,16.0,69,0.00,,,0.00,176.0,meteohub,2013-11-03 16:55:00,
2013-11-03 11:57:00,50.0,39.9,30.14,NNW,331,14.0,16.0,68,0.00,,,0.00,116.0,meteohub,2013-11-03 16:57:00,
2013-11-03 11:58:00,50.2,40.1,30.14,North,0,13.0,16.0,68,0.00,,,0.00,199.0,meteohub,2013-11-03 16:58:00,
2013-11-03 11:59:00,50.2,40.1,30.14,West,279,11.0,16.0,68,0.00,,,0.00,127.0,meteohub,2013-11-03 16:59:00,
2013-11-03 12:00:00,50.2,39.6,30.14,NW,321,9.0,16.0,67,0.00,,,0.00,127.0,meteohub,2013-11-03 17:00:00,
2013-11-03 12:03:00,50.4,40.3,30.14,NNE,28,10.0,16.0,68,0.00,,,0.00,148.0,meteohub,2013-11-03 17:03:00,
2013-11-03 12:04:00,50.4,39.7,30.14,NW,313,8.0,16.0,67,0.00,,,0.00,151.0,meteohub,2013-11-03 17:04:00,
2013-11-03 12:05:00,50.5,40.5,30.14,NW,325,6.0,16.0,68,0.00,,,0.00,151.0,meteohub,2013-11-03 17:05:00,
2013-11-03 12:07:00,50.5,39.9,30.14,North,0,9.0,16.0,67,0.00,,,0.00,120.0,meteohub,2013-11-03 17:07:00,
2013-11-03 12:09:00,50.7,40.1,30.14,NNW,330,15.0,16.0,67,0.00,,,0.00,111.0,meteohub,2013-11-03 17:09:00,
2013-11-03 12:10:00,50.7,40.1,30.14,NW,318,11.0,16.0,67,0.00,,,0.00,107.0,meteohub,2013-11-03 17:10:00,
2013-11-03 12:11:00,50.7,39.7,30.14,NW,317,13.0,16.0,66,0.00,,,0.00,104.0,meteohub,2013-11-03 17:11:00,
2013-11-03 12:13:00,50.7,40.1,30.14,NNE,20,4.0,16.0,67,0.00,,,0.00,100.0,meteohub,2013-11-03 17:13:00,
2013-11-03 12:14:00,50.7,40.1,30.14,North,355,9.0,16.0,67,0.00,,,0.00,100.0,meteohub,2013-11-03 17:14:00,
2013-11-03 12:15:00,50.9,39.9,30.14,NW,324,10.0,16.0,66,0.00,,,0.00,104.0,meteohub,2013-11-03 17:15:00,
2013-11-03 12:16:00,50.9,39.9,30.14,NW,315,1.0,16.0,66,0.00,,,0.00,104.0,meteohub,2013-11-03 17:16:00,
2013-11-03 12:17:00,51.1,40.1,30.14,NNW,344,6.0,16.0,66,0.00,,,0.00,104.0,meteohub,2013-11-03 17:17:00,
2013-11-03 12:19:00,51.1,39.7,30.14,NNW,348,14.0,16.0,65,0.00,,,0.00,619.0,meteohub,2013-11-03 17:19:00,
2013-11-03 12:20:00,51.1,40.1,30.14,NNW,341,10.0,17.0,66,0.00,,,0.00,622.0,meteohub,2013-11-03 17:20:00,
2013-11-03 12:21:00,51.1,40.1,30.14,NNW,342,10.0,17.0,66,0.00,,,0.00,629.0,meteohub,2013-11-03 17:21:00,
2013-11-03 12:23:00,51.3,40.3,30.14,NNW,334,6.0,17.0,66,0.00,,,0.00,671.0,meteohub,2013-11-03 17:23:00,
2013-11-03 12:24:00,51.3,39.9,30.14,NNE,13,9.0,17.0,65,0.00,,,0.00,671.0,meteohub,2013-11-03 17:24:00,
2013-11-03 12:25:00,51.3,39.9,30.14,NNW,347,11.0,19.0,65,0.00,,,0.00,671.0,meteohub,2013-11-03 17:25:00,
2013-11-03 12:26:00,51.3,39.9,30.14,North,5,6.0,19.0,65,0.00,,,0.00,671.0,meteohub,2013-11-03 17:26:00,
2013-11-03 12:27:00,51.3,40.3,30.14,NNW,342,12.0,19.0,66,0.00,,,0.00,113.0,meteohub,2013-11-03 17:27:00,
2013-11-03 12:28:00,51.3,39.9,30.14,NNW,347,9.0,19.0,65,0.00,,,0.00,624.0,meteohub,2013-11-03 17:28:00,
2013-11-03 12:30:00,51.1,39.7,30.14,NNW,333,17.0,19.0,65,0.00,,,0.00,624.0,meteohub,2013-11-03 17:30:00,
2013-11-03 12:31:00,51.3,39.6,30.14,North,0,15.0,19.0,64,0.00,,,0.00,615.0,meteohub,2013-11-03 17:31:00,
2013-11-03 12:33:00,51.1,39.4,30.14,North,355,9.0,19.0,64,0.00,,,0.00,612.0,meteohub,2013-11-03 17:33:00,
2013-11-03 12:35:00,51.3,39.9,30.14,NNW,332,10.0,19.0,65,0.00,,,0.00,617.0,meteohub,2013-11-03 17:35:00,
2013-11-03 12:36:00,51.3,39.6,30.14,NNE,15,14.0,19.0,64,0.00,,,0.00,624.0,meteohub,2013-11-03 17:36:00,
2013-11-03 12:38:00,51.4,39.7,30.14,NW,323,10.0,19.0,64,0.00,,,0.00,617.0,meteohub,2013-11-03 17:38:00,
2013-11-03 12:39:00,51.4,39.2,30.14,NNW,344,13.0,19.0,63,0.00,,,0.00,554.0,meteohub,2013-11-03 17:39:00,
2013-11-03 12:40:00,51.3,39.0,30.14,NW,319,12.0,20.0,63,0.00,,,0.00,603.0,meteohub,2013-11-03 17:40:00,
2013-11-03 12:41:00,51.3,39.6,30.14,North,355,11.0,20.0,64,0.00,,,0.00,594.0,meteohub,2013-11-03 17:41:00,
2013-11-03 12:42:00,51.3,39.6,30.14,NW,325,11.0,20.0,64,0.00,,,0.00,592.0,meteohub,2013-11-03 17:42:00,
2013-11-03 12:43:00,51.4,39.2,30.14,North,0,13.0,20.0,63,0.00,,,0.00,591.0,meteohub,2013-11-03 17:43:00,
2013-11-03 12:44:00,51.4,39.2,30.14,NNW,342,15.0,20.0,63,0.00,,,0.00,589.0,meteohub,2013-11-03 17:44:00,
2013-11-03 12:46:00,51.4,38.8,30.13,North,349,17.0,20.0,62,0.00,,,0.00,589.0,meteohub,2013-11-03 17:46:00,
2013-11-03 12:47:00,51.4,38.8,30.13,North,11,5.0,20.0,62,0.00,,,0.00,587.0,meteohub,2013-11-03 17:47:00,
2013-11-03 12:48:00,51.4,38.8,30.13,North,355,21.0,21.0,62,0.00,,,0.00,584.0,meteohub,2013-11-03 17:48:00,
2013-11-03 12:49:00,51.4,38.8,30.13,North,5,10.0,20.0,62,0.00,,,0.00,582.0,meteohub,2013-11-03 17:49:00,
2013-11-03 12:51:00,51.4,38.8,30.13,NW,308,8.0,21.0,62,0.00,,,0.00,580.0,meteohub,2013-11-03 17:51:00,
2013-11-03 12:52:00,51.4,38.8,30.13,North,0,14.0,21.0,62,0.00,,,0.00,577.0,meteohub,2013-11-03 17:52:00,
2013-11-03 12:53:00,51.4,38.8,30.13,NNE,13,7.0,21.0,62,0.00,,,0.00,575.0,meteohub,2013-11-03 17:53:00,
2013-11-03 12:54:00,51.4,38.8,30.13,NNE,28,6.0,21.0,62,0.00,,,0.00,571.0,meteohub,2013-11-03 17:54:00,
2013-11-03 12:56:00,51.4,38.8,30.13,North,350,9.0,21.0,62,0.00,,,0.00,571.0,meteohub,2013-11-03 17:56:00,
2013-11-03 12:57:00,51.6,39.0,30.13,North,355,11.0,21.0,62,0.00,,,0.00,571.0,meteohub,2013-11-03 17:57:00,
2013-11-03 12:59:00,51.8,38.8,30.13,North,355,10.0,21.0,61,0.00,,,0.00,566.0,meteohub,2013-11-03 17:59:00,
2013-11-03 13:01:00,52.0,39.0,30.13,North,0,14.0,21.0,61,0.00,,,0.00,563.0,meteohub,2013-11-03 18:01:00,
2013-11-03 13:02:00,52.2,39.2,30.13,NNW,331,5.0,21.0,61,0.00,,,0.00,557.0,meteohub,2013-11-03 18:02:00,
2013-11-03 13:04:00,52.2,39.2,30.13,NNW,345,9.0,21.0,61,0.00,,,0.00,557.0,meteohub,2013-11-03 18:04:00,
2013-11-03 13:05:00,52.3,38.8,30.13,North,11,9.0,19.0,60,0.00,,,0.00,555.0,meteohub,2013-11-03 18:05:00,
2013-11-03 13:07:00,52.3,38.8,30.14,NE,38,17.0,19.0,60,0.00,,,0.00,550.0,meteohub,2013-11-03 18:07:00,
2013-11-03 13:08:00,52.3,38.8,30.14,NNW,330,12.0,19.0,60,0.00,,,0.00,547.0,meteohub,2013-11-03 18:08:00,
2013-11-03 13:10:00,52.3,38.8,30.14,NNW,333,9.0,18.0,60,0.00,,,0.00,543.0,meteohub,2013-11-03 18:10:00,
2013-11-03 13:11:00,52.5,39.0,30.14,NW,313,9.0,18.0,60,0.00,,,0.00,543.0,meteohub,2013-11-03 18:11:00,
2013-11-03 13:12:00,52.5,39.0,30.14,NW,319,8.0,18.0,60,0.00,,,0.00,541.0,meteohub,2013-11-03 18:12:00,
2013-11-03 13:13:00,52.5,38.7,30.14,NW,325,8.0,18.0,59,0.00,,,0.00,540.0,meteohub,2013-11-03 18:13:00,
2013-11-03 13:15:00,52.7,38.8,30.14,NW,320,11.0,17.0,59,0.00,,,0.00,536.0,meteohub,2013-11-03 18:15:00,
2013-11-03 13:16:00,52.7,38.8,30.14,NW,317,6.0,17.0,59,0.00,,,0.00,534.0,meteohub,2013-11-03 18:16:00,
2013-11-03 13:17:00,52.9,38.5,30.14,NW,313,10.0,17.0,58,0.00,,,0.00,534.0,meteohub,2013-11-03 18:17:00,
2013-11-03 13:18:00,52.9,38.1,30.14,NNE,20,9.0,17.0,57,0.00,,,0.00,531.0,meteohub,2013-11-03 18:18:00,
2013-11-03 13:20:00,52.9,38.1,30.14,NNE,24,16.0,18.0,57,0.00,,,0.00,526.0,meteohub,2013-11-03 18:20:00,
2013-11-03 13:21:00,52.9,38.1,30.14,NE,44,9.0,18.0,57,0.00,,,0.00,522.0,meteohub,2013-11-03 18:21:00,
2013-11-03 13:22:00,52.7,37.9,30.14,North,0,5.0,18.0,57,0.00,,,0.00,520.0,meteohub,2013-11-03 18:22:00,
2013-11-03 13:23:00,52.9,38.1,30.14,NE,39,6.0,18.0,57,0.00,,,0.00,517.0,meteohub,2013-11-03 18:23:00,
2013-11-03 13:24:00,52.9,37.6,30.14,NNW,346,8.0,18.0,56,0.00,,,0.00,515.0,meteohub,2013-11-03 18:24:00,
2013-11-03 13:25:00,52.7,37.9,30.14,North,351,14.0,18.0,57,0.00,,,0.00,515.0,meteohub,2013-11-03 18:25:00,
2013-11-03 13:26:00,52.7,37.9,30.14,NNW,334,8.0,18.0,57,0.00,,,0.00,513.0,meteohub,2013-11-03 18:26:00,
2013-11-03 13:27:00,52.7,37.4,30.14,NNW,348,8.0,18.0,56,0.00,,,0.00,513.0,meteohub,2013-11-03 18:27:00,
2013-11-03 13:28:00,52.9,37.2,30.14,NNW,348,9.0,18.0,55,0.00,,,0.00,510.0,meteohub,2013-11-03 18:28:00,
2013-11-03 13:29:00,52.9,37.2,30.14,WNW,301,8.0,18.0,55,0.00,,,0.00,508.0,meteohub,2013-11-03 18:29:00,
2013-11-03 13:31:00,52.9,37.2,30.14,NE,44,7.0,18.0,55,0.00,,,0.00,503.0,meteohub,2013-11-03 18:31:00,
2013-11-03 13:32:00,52.9,36.1,30.14,North,9,9.0,18.0,53,0.00,,,0.00,503.0,meteohub,2013-11-03 18:32:00,
2013-11-03 13:33:00,52.9,36.1,30.14,NNE,26,14.0,18.0,53,0.00,,,0.00,499.0,meteohub,2013-11-03 18:33:00,
2013-11-03 13:34:00,52.9,35.8,30.14,NE,49,11.0,18.0,52,0.00,,,0.00,497.0,meteohub,2013-11-03 18:34:00,
2013-11-03 13:35:00,52.9,35.8,30.14,NNE,20,15.0,18.0,52,0.00,,,0.00,497.0,meteohub,2013-11-03 18:35:00,
2013-11-03 13:36:00,52.9,35.8,30.14,North,355,4.0,18.0,52,0.00,,,0.00,490.0,meteohub,2013-11-03 18:36:00,
2013-11-03 13:38:00,52.9,35.8,30.14,NE,55,4.0,18.0,52,0.00,,,0.00,487.0,meteohub,2013-11-03 18:38:00,
2013-11-03 13:39:00,52.9,36.1,30.14,North,355,6.0,18.0,53,0.00,,,0.00,485.0,meteohub,2013-11-03 18:39:00,
2013-11-03 13:40:00,52.9,36.1,30.14,NNE,30,3.0,18.0,53,0.00,,,0.00,482.0,meteohub,2013-11-03 18:40:00,
2013-11-03 13:42:00,52.9,36.1,30.14,NNW,346,6.0,18.0,53,0.00,,,0.00,476.0,meteohub,2013-11-03 18:42:00,
2013-11-03 13:44:00,53.1,36.9,30.14,NNW,332,10.0,18.0,54,0.00,,,0.00,473.0,meteohub,2013-11-03 18:44:00,
2013-11-03 13:45:00,53.1,36.9,30.14,NNW,329,6.0,18.0,54,0.00,,,0.00,471.0,meteohub,2013-11-03 18:45:00,
2013-11-03 13:49:00,53.4,36.7,30.14,NW,318,11.0,16.0,53,0.00,,,0.00,461.0,meteohub,2013-11-03 18:49:00,
2013-11-03 13:50:00,53.4,36.7,30.14,NW,317,12.0,16.0,53,0.00,,,0.00,461.0,meteohub,2013-11-03 18:50:00,
2013-11-03 13:51:00,53.2,35.1,30.15,North,350,18.0,18.0,50,0.00,,,0.00,452.0,meteohub,2013-11-03 18:51:00,
2013-11-03 13:54:00,53.2,35.6,30.15,North,9,11.0,18.0,51,0.00,,,0.00,445.0,meteohub,2013-11-03 18:54:00,
2013-11-03 13:55:00,53.2,35.6,30.15,North,0,11.0,20.0,51,0.00,,,0.00,443.0,meteohub,2013-11-03 18:55:00,
2013-11-03 13:56:00,53.1,35.4,30.15,North,355,14.0,20.0,51,0.00,,,0.00,439.0,meteohub,2013-11-03 18:56:00,
2013-11-03 13:57:00,53.1,35.4,30.15,North,0,16.0,20.0,51,0.00,,,0.00,441.0,meteohub,2013-11-03 18:57:00,
2013-11-03 13:59:00,53.1,36.0,30.15,North,350,14.0,20.0,52,0.00,,,0.00,436.0,meteohub,2013-11-03 18:59:00,
2013-11-03 14:01:00,53.1,36.0,30.15,NNE,22,11.0,20.0,52,0.00,,,0.00,432.0,meteohub,2013-11-03 19:01:00,
2013-11-03 14:02:00,53.1,36.0,30.15,NNE,17,8.0,20.0,52,0.00,,,0.00,432.0,meteohub,2013-11-03 19:02:00,
2013-11-03 14:05:00,53.2,36.5,30.16,NNW,347,16.0,20.0,53,0.00,,,0.00,425.0,meteohub,2013-11-03 19:05:00,
2013-11-03 14:06:00,53.2,36.5,30.16,West,275,8.0,20.0,53,0.00,,,0.00,425.0,meteohub,2013-11-03 19:06:00,
2013-11-03 14:07:00,53.2,36.5,30.16,NW,316,8.0,20.0,53,0.00,,,0.00,422.0,meteohub,2013-11-03 19:07:00,
2013-11-03 14:08:00,53.2,36.5,30.16,NNW,339,11.0,20.0,53,0.00,,,0.00,422.0,meteohub,2013-11-03 19:08:00,
2013-11-03 14:10:00,53.2,36.1,30.16,NW,309,15.0,18.0,52,0.00,,,0.00,417.0,meteohub,2013-11-03 19:10:00,
2013-11-03 14:11:00,53.2,36.1,30.16,NW,319,12.0,18.0,52,0.00,,,0.00,415.0,meteohub,2013-11-03 19:11:00,
2013-11-03 14:12:00,53.2,36.5,30.16,NNW,346,13.0,18.0,53,0.00,,,0.00,415.0,meteohub,2013-11-03 19:12:00,
2013-11-03 14:13:00,53.2,36.5,30.16,NW,311,5.0,18.0,53,0.00,,,0.00,411.0,meteohub,2013-11-03 19:13:00,
2013-11-03 14:15:00,53.2,36.5,30.16,North,355,14.0,20.0,53,0.00,,,0.00,408.0,meteohub,2013-11-03 19:15:00,
2013-11-03 14:16:00,53.2,36.1,30.16,NNW,347,11.0,20.0,52,0.00,,,0.00,406.0,meteohub,2013-11-03 19:16:00,
2013-11-03 14:17:00,53.2,36.1,30.16,NW,323,9.0,20.0,52,0.00,,,0.00,404.0,meteohub,2013-11-03 19:17:00,
2013-11-03 14:18:00,53.2,36.5,30.16,NNW,333,16.0,20.0,53,0.00,,,0.00,404.0,meteohub,2013-11-03 19:18:00,
2013-11-03 14:19:00,53.2,36.5,30.16,NW,313,15.0,20.0,53,0.00,,,0.00,404.0,meteohub,2013-11-03 19:19:00,
2013-11-03 14:21:00,53.1,36.0,30.16,NNW,340,12.0,20.0,52,0.00,,,0.00,397.0,meteohub,2013-11-03 19:21:00,
2013-11-03 14:22:00,52.9,35.8,30.16,NW,312,9.0,20.0,52,0.00,,,0.00,396.0,meteohub,2013-11-03 19:22:00,
2013-11-03 14:24:00,52.9,35.8,30.16,NNW,341,11.0,20.0,52,0.00,,,0.00,390.0,meteohub,2013-11-03 19:24:00,
2013-11-03 14:25:00,52.7,35.6,30.16,NNE,14,10.0,20.0,52,0.00,,,0.00,392.0,meteohub,2013-11-03 19:25:00,
2013-11-03 14:26:00,52.7,35.6,30.16,WNW,303,11.0,20.0,52,0.00,,,0.00,388.0,meteohub,2013-11-03 19:26:00,
2013-11-03 14:27:00,52.7,35.1,30.17,NW,324,9.0,20.0,51,0.00,,,0.00,388.0,meteohub,2013-11-03 19:27:00,
2013-11-03 14:28:00,52.7,35.1,30.16,NW,317,4.0,20.0,51,0.00,,,0.00,385.0,meteohub,2013-11-03 19:28:00,
2013-11-03 14:29:00,52.9,34.7,30.16,NNW,338,8.0,20.0,50,0.00,,,0.00,381.0,meteohub,2013-11-03 19:29:00,
2013-11-03 14:30:00,52.7,34.5,30.16,NNW,333,8.0,22.0,50,0.00,,,0.00,381.0,meteohub,2013-11-03 19:30:00,
2013-11-03 14:32:00,52.7,34.5,30.16,North,355,16.0,22.0,50,0.00,,,0.00,376.0,meteohub,2013-11-03 19:32:00,
2013-11-03 14:33:00,52.7,34.5,30.16,NW,322,6.0,22.0,50,0.00,,,0.00,374.0,meteohub,2013-11-03 19:33:00,
2013-11-03 14:34:00,52.7,34.5,30.16,NNW,340,11.0,22.0,50,0.00,,,0.00,369.0,meteohub,2013-11-03 19:34:00,
2013-11-03 14:35:00,52.7,34.5,30.16,NW,325,9.0,22.0,50,0.00,,,0.00,369.0,meteohub,2013-11-03 19:35:00,
2013-11-03 14:37:00,52.7,34.5,30.17,NNW,345,12.0,22.0,50,0.00,,,0.00,366.0,meteohub,2013-11-03 19:37:00,
2013-11-03 14:38:00,52.7,34.5,30.17,NNW,346,13.0,22.0,50,0.00,,,0.00,366.0,meteohub,2013-11-03 19:38:00,
2013-11-03 14:40:00,52.7,34.5,30.17,WNW,299,10.0,22.0,50,0.00,,,0.00,360.0,meteohub,2013-11-03 19:40:00,
2013-11-03 14:41:00,52.7,34.5,30.17,NW,321,9.0,22.0,50,0.00,,,0.00,359.0,meteohub,2013-11-03 19:41:00,
2013-11-03 14:43:00,52.5,34.0,30.17,NW,326,11.0,22.0,49,0.00,,,0.00,352.0,meteohub,2013-11-03 19:43:00,
2013-11-03 14:44:00,52.5,34.3,30.17,NNW,330,14.0,22.0,50,0.00,,,0.00,352.0,meteohub,2013-11-03 19:44:00,
2013-11-03 14:45:00,52.5,34.3,30.17,NW,326,11.0,20.0,50,0.00,,,0.00,348.0,meteohub,2013-11-03 19:45:00,
2013-11-03 14:46:00,52.3,34.2,30.17,NW,313,13.0,20.0,50,0.00,,,0.00,345.0,meteohub,2013-11-03 19:46:00,
2013-11-03 14:48:00,52.3,34.2,30.17,NNW,339,13.0,20.0,50,0.00,,,0.00,341.0,meteohub,2013-11-03 19:48:00,
2013-11-03 14:49:00,52.2,34.2,30.17,NNW,329,18.0,20.0,50,0.00,,,0.00,341.0,meteohub,2013-11-03 19:49:00,
2013-11-03 14:50:00,52.2,34.2,30.17,NNW,341,9.0,20.0,50,0.00,,,0.00,338.0,meteohub,2013-11-03 19:50:00,
2013-11-03 14:52:00,52.2,34.2,30.17,NNW,336,18.0,20.0,50,0.00,,,0.00,332.0,meteohub,2013-11-03 19:52:00,
2013-11-03 14:54:00,52.0,33.4,30.17,NNW,336,8.0,20.0,49,0.00,,,0.00,330.0,meteohub,2013-11-03 19:54:00,
2013-11-03 14:55:00,52.0,33.4,30.17,NNW,348,18.0,21.0,49,0.00,,,0.00,327.0,meteohub,2013-11-03 19:55:00,
2013-11-03 14:56:00,52.0,34.0,30.18,North,355,13.0,21.0,50,0.00,,,0.00,323.0,meteohub,2013-11-03 19:56:00,
2013-11-03 14:57:00,52.0,33.4,30.17,North,355,11.0,21.0,49,0.00,,,0.00,320.0,meteohub,2013-11-03 19:57:00,
2013-11-03 14:59:00,52.2,34.2,30.18,NNW,330,12.0,21.0,50,0.00,,,0.00,315.0,meteohub,2013-11-03 19:59:00,
2013-11-03 15:00:00,52.2,34.2,30.17,North,349,13.0,21.0,50,0.00,,,0.00,313.0,meteohub,2013-11-03 20:00:00,
2013-11-03 15:01:00,52.2,34.2,30.17,North,5,10.0,21.0,50,0.00,,,0.00,313.0,meteohub,2013-11-03 20:01:00,
2013-11-03 15:02:00,52.2,33.6,30.18,North,5,10.0,21.0,49,0.00,,,0.00,309.0,meteohub,2013-11-03 20:02:00,
2013-11-03 15:04:00,52.2,33.6,30.17,NNW,331,4.0,21.0,49,0.00,,,0.00,302.0,meteohub,2013-11-03 20:04:00,
2013-11-03 15:06:00,52.2,33.6,30.17,NNW,330,4.0,20.0,49,0.00,,,0.00,301.0,meteohub,2013-11-03 20:06:00,
2013-11-03 15:07:00,52.2,33.6,30.17,North,0,6.0,20.0,49,0.00,,,0.00,297.0,meteohub,2013-11-03 20:07:00,
2013-11-03 15:09:00,52.3,34.2,30.18,North,11,8.0,20.0,50,0.00,,,0.00,292.0,meteohub,2013-11-03 20:09:00,
2013-11-03 15:10:00,52.3,33.8,30.18,NNW,333,12.0,20.0,49,0.00,,,0.00,292.0,meteohub,2013-11-03 20:10:00,
2013-11-03 15:12:00,52.2,33.1,30.18,NW,324,9.0,20.0,48,0.00,,,0.00,288.0,meteohub,2013-11-03 20:12:00,
2013-11-03 15:14:00,52.2,33.6,30.18,NNW,348,15.0,20.0,49,0.00,,,0.00,276.0,meteohub,2013-11-03 20:14:00,
2013-11-03 15:15:00,52.2,33.1,30.18,NNW,339,10.0,20.0,48,0.00,,,0.00,190.0,meteohub,2013-11-03 20:15:00,
2013-11-03 15:17:00,52.0,32.9,30.18,NNW,332,12.0,20.0,48,0.00,,,0.00,62.0,meteohub,2013-11-03 20:17:00,
2013-11-03 15:18:00,51.8,33.3,30.18,NW,319,9.0,20.0,49,0.00,,,0.00,62.0,meteohub,2013-11-03 20:18:00,
2013-11-03 15:19:00,51.8,33.3,30.18,North,350,20.0,20.0,49,0.00,,,0.00,62.0,meteohub,2013-11-03 20:19:00,
2013-11-03 15:20:00,51.6,33.1,30.18,North,355,15.0,16.0,49,0.00,,,0.00,62.0,meteohub,2013-11-03 20:20:00,
2013-11-03 15:21:00,51.6,33.1,30.18,North,0,13.0,16.0,49,0.00,,,0.00,62.0,meteohub,2013-11-03 20:21:00,
2013-11-03 15:22:00,51.6,33.6,30.18,NW,321,10.0,16.0,50,0.00,,,0.00,62.0,meteohub,2013-11-03 20:22:00,
2013-11-03 15:24:00,51.4,32.9,30.18,NNW,341,15.0,16.0,49,0.00,,,0.00,62.0,meteohub,2013-11-03 20:24:00,
2013-11-03 15:25:00,51.4,32.9,30.18,NNE,30,17.0,17.0,49,0.00,,,0.00,62.0,meteohub,2013-11-03 20:25:00,
2013-11-03 15:26:00,51.4,32.9,30.18,NW,323,12.0,22.0,49,0.00,,,0.00,62.0,meteohub,2013-11-03 20:26:00,
2013-11-03 15:28:00,51.3,33.3,30.18,NW,319,13.0,22.0,50,0.00,,,0.00,63.0,meteohub,2013-11-03 20:28:00,
2013-11-03 15:29:00,51.3,33.3,30.18,NW,323,11.0,22.0,50,0.00,,,0.00,63.0,meteohub,2013-11-03 20:29:00,
2013-11-03 15:30:00,51.3,33.3,30.18,NNW,331,8.0,22.0,50,0.00,,,0.00,63.0,meteohub,2013-11-03 20:30:00,
2013-11-03 15:31:00,51.3,33.3,30.18,North,355,6.0,22.0,50,0.00,,,0.00,63.0,meteohub,2013-11-03 20:31:00,
2013-11-03 15:32:00,51.3,33.3,30.18,NNW,333,8.0,22.0,50,0.00,,,0.00,63.0,meteohub,2013-11-03 20:32:00,
2013-11-03 15:33:00,51.3,33.3,30.19,NW,312,11.0,22.0,50,0.00,,,0.00,63.0,meteohub,2013-11-03 20:33:00,
2013-11-03 15:35:00,51.3,32.2,30.19,NW,310,14.0,21.0,48,0.00,,,0.00,63.0,meteohub,2013-11-03 20:35:00,
2013-11-03 15:36:00,51.1,32.5,30.19,NNW,327,11.0,21.0,49,0.00,,,0.00,63.0,meteohub,2013-11-03 20:36:00,
2013-11-03 15:37:00,51.1,32.5,30.19,NNW,329,11.0,21.0,49,0.00,,,0.00,63.0,meteohub,2013-11-03 20:37:00,
2013-11-03 15:38:00,51.1,32.5,30.19,North,355,8.0,21.0,49,0.00,,,0.00,63.0,meteohub,2013-11-03 20:38:00,
2013-11-03 15:40:00,51.1,32.5,30.19,NNW,343,15.0,21.0,49,0.00,,,0.00,63.0,meteohub,2013-11-03 20:40:00,
2013-11-03 15:41:00,51.1,32.5,30.19,NNW,329,12.0,21.0,49,0.00,,,0.00,63.0,meteohub,2013-11-03 20:41:00,
2013-11-03 15:42:00,51.1,32.5,30.19,NW,320,14.0,21.0,49,0.00,,,0.00,63.0,meteohub,2013-11-03 20:42:00,
2013-11-03 15:43:00,50.9,32.4,30.19,NW,320,15.0,21.0,49,0.00,,,0.00,63.0,meteohub,2013-11-03 20:43:00,
2013-11-03 15:46:00,50.7,32.7,30.19,NW,321,10.0,21.0,50,0.00,,,0.00,62.0,meteohub,2013-11-03 20:46:00,
2013-11-03 15:47:00,50.7,32.7,30.19,NNW,329,6.0,21.0,50,0.00,,,0.00,62.0,meteohub,2013-11-03 20:47:00,
2013-11-03 15:49:00,50.7,32.7,30.19,NNW,329,15.0,21.0,50,0.00,,,0.00,62.0,meteohub,2013-11-03 20:49:00,
2013-11-03 15:52:00,50.5,33.1,30.19,NNW,337,10.0,19.0,51,0.00,,,0.00,63.0,meteohub,2013-11-03 20:52:00,
2013-11-03 15:53:00,50.5,33.1,30.19,NNW,329,8.0,19.0,51,0.00,,,0.00,62.0,meteohub,2013-11-03 20:53:00,
2013-11-03 15:54:00,50.5,33.1,30.20,NNW,330,11.0,19.0,51,0.00,,,0.00,62.0,meteohub,2013-11-03 20:54:00,
2013-11-03 15:57:00,50.4,32.9,30.20,North,350,5.0,19.0,51,0.00,,,0.00,62.0,meteohub,2013-11-03 20:57:00,
2013-11-03 15:58:00,50.4,32.9,30.20,North,355,13.0,19.0,51,0.00,,,0.00,62.0,meteohub,2013-11-03 20:58:00,
2013-11-03 15:59:00,50.4,32.9,30.20,North,0,11.0,19.0,51,0.00,,,0.00,62.0,meteohub,2013-11-03 20:59:00,
2013-11-03 16:02:00,50.4,33.4,30.20,North,355,12.0,20.0,52,0.00,,,0.00,60.0,meteohub,2013-11-03 21:02:00,
2013-11-03 16:03:00,50.4,32.9,30.20,NNW,343,8.0,20.0,51,0.00,,,0.00,58.0,meteohub,2013-11-03 21:03:00,
2013-11-03 16:04:00,50.4,32.9,30.21,NNE,16,9.0,20.0,51,0.00,,,0.00,58.0,meteohub,2013-11-03 21:04:00,
2013-11-03 16:07:00,50.4,32.9,30.21,NNW,344,12.0,20.0,51,0.00,,,0.00,54.0,meteohub,2013-11-03 21:07:00,
2013-11-03 16:08:00,50.4,32.9,30.21,NNW,347,12.0,20.0,51,0.00,,,0.00,54.0,meteohub,2013-11-03 21:08:00,
2013-11-03 16:09:00,50.4,32.4,30.21,NW,320,11.0,20.0,50,0.00,,,0.00,54.0,meteohub,2013-11-03 21:09:00,
2013-11-03 16:10:00,50.4,32.4,30.21,NNW,336,11.0,20.0,50,0.00,,,0.00,53.0,meteohub,2013-11-03 21:10:00,
2013-11-03 16:13:00,50.2,32.2,30.21,NNW,338,11.0,20.0,50,0.00,,,0.00,49.0,meteohub,2013-11-03 21:13:00,
2013-11-03 16:14:00,50.0,32.2,30.21,North,355,13.0,20.0,50,0.00,,,0.00,46.0,meteohub,2013-11-03 21:14:00,
2013-11-03 16:15:00,50.0,32.2,30.21,NNW,336,17.0,19.0,50,0.00,,,0.00,46.0,meteohub,2013-11-03 21:15:00,
2013-11-03 16:16:00,50.0,32.2,30.21,NNW,340,10.0,19.0,50,0.00,,,0.00,44.0,meteohub,2013-11-03 21:16:00,
2013-11-03 16:18:00,49.8,32.4,30.22,NNW,327,6.0,19.0,51,0.00,,,0.00,37.0,meteohub,2013-11-03 21:18:00,
2013-11-03 16:19:00,49.8,32.4,30.22,NNW,334,16.0,19.0,51,0.00,,,0.00,35.0,meteohub,2013-11-03 21:19:00,
2013-11-03 16:20:00,49.8,32.0,30.22,NNW,335,10.0,19.0,50,0.00,,,0.00,33.0,meteohub,2013-11-03 21:20:00,
2013-11-03 16:21:00,49.8,32.0,30.22,NNW,329,9.0,19.0,50,0.00,,,0.00,32.0,meteohub,2013-11-03 21:21:00,
2013-11-03 16:22:00,49.6,32.2,30.22,NNW,342,6.0,19.0,51,0.00,,,0.00,30.0,meteohub,2013-11-03 21:22:00,
2013-11-03 16:23:00,49.6,31.8,30.22,NNW,344,9.0,19.0,50,0.00,,,0.00,26.0,meteohub,2013-11-03 21:23:00,
2013-11-03 16:25:00,49.5,31.1,30.22,North,5,15.0,20.0,49,0.00,,,0.00,23.0,meteohub,2013-11-03 21:25:00,
2013-11-03 16:26:00,49.5,31.1,30.22,NNW,340,13.0,20.0,49,0.00,,,0.00,21.0,meteohub,2013-11-03 21:26:00,
2013-11-03 16:27:00,49.5,31.1,30.22,NNW,337,11.0,20.0,49,0.00,,,0.00,19.0,meteohub,2013-11-03 21:27:00,
2013-11-03 16:28:00,49.5,31.1,30.22,NNW,338,12.0,20.0,49,0.00,,,0.00,18.0,meteohub,2013-11-03 21:28:00,
2013-11-03 16:29:00,49.5,31.1,30.22,NNW,334,15.0,20.0,49,0.00,,,0.00,18.0,meteohub,2013-11-03 21:29:00,
2013-11-03 16:30:00,49.3,30.9,30.22,North,5,11.0,21.0,49,0.00,,,0.00,14.0,meteohub,2013-11-03 21:30:00,
2013-11-03 16:31:00,49.3,30.9,30.22,NNW,345,11.0,21.0,49,0.00,,,0.00,14.0,meteohub,2013-11-03 21:31:00,
2013-11-03 16:32:00,49.3,30.9,30.22,North,5,14.0,21.0,49,0.00,,,0.00,12.0,meteohub,2013-11-03 21:32:00,
2013-11-03 16:33:00,49.3,30.9,30.22,NNW,330,13.0,21.0,49,0.00,,,0.00,11.0,meteohub,2013-11-03 21:33:00,
2013-11-03 16:34:00,49.1,30.7,30.23,NNW,330,10.0,21.0,49,0.00,,,0.00,9.0,meteohub,2013-11-03 21:34:00,
2013-11-03 16:36:00,48.9,31.1,30.23,North,355,10.0,21.0,50,0.00,,,0.00,9.0,meteohub,2013-11-03 21:36:00,
2013-11-03 16:37:00,48.9,31.1,30.23,NNW,331,13.0,21.0,50,0.00,,,0.00,7.0,meteohub,2013-11-03 21:37:00,
2013-11-03 16:38:00,48.7,30.9,30.23,NNW,338,18.0,21.0,50,0.00,,,0.00,7.0,meteohub,2013-11-03 21:38:00,
2013-11-03 16:39:00,48.7,30.9,30.23,North,0,13.0,21.0,50,0.00,,,0.00,7.0,meteohub,2013-11-03 21:39:00,
2013-11-03 16:41:00,48.7,30.9,30.23,NNW,344,6.0,24.0,50,0.00,,,0.00,7.0,meteohub,2013-11-03 21:41:00,
2013-11-03 16:42:00,48.6,30.7,30.23,NNW,337,6.0,24.0,50,0.00,,,0.00,7.0,meteohub,2013-11-03 21:42:00,
2013-11-03 16:43:00,48.6,30.7,30.23,NNW,342,8.0,24.0,50,0.00,,,0.00,5.0,meteohub,2013-11-03 21:43:00,
2013-11-03 16:44:00,48.6,31.3,30.23,North,355,10.0,24.0,51,0.00,,,0.00,5.0,meteohub,2013-11-03 21:44:00,
2013-11-03 16:45:00,48.4,30.6,30.23,NW,318,10.0,24.0,50,0.00,,,0.00,5.0,meteohub,2013-11-03 21:45:00,
2013-11-03 16:46:00,48.4,31.1,30.23,NNW,330,9.0,24.0,51,0.00,,,0.00,5.0,meteohub,2013-11-03 21:46:00,
2013-11-03 16:47:00,48.4,30.6,30.24,NNW,329,12.0,24.0,50,0.00,,,0.00,5.0,meteohub,2013-11-03 21:47:00,
2013-11-03 16:49:00,48.2,30.9,30.24,NNW,340,14.0,24.0,51,0.00,,,0.00,5.0,meteohub,2013-11-03 21:49:00,
2013-11-03 16:50:00,48.2,30.9,30.24,NNW,346,20.0,24.0,51,0.00,,,0.00,0.0,meteohub,2013-11-03 21:50:00,
2013-11-03 16:51:00,48.0,30.2,30.24,North,355,12.0,24.0,50,0.00,,,0.00,0.0,meteohub,2013-11-03 21:51:00,
2013-11-03 16:52:00,48.0,30.7,30.24,NNW,347,6.0,24.0,51,0.00,,,0.00,0.0,meteohub,2013-11-03 21:52:00,
2013-11-03 16:54:00,48.0,30.7,30.24,NNW,327,14.0,24.0,51,0.00,,,0.00,0.0,meteohub,2013-11-03 21:54:00,
2013-11-03 16:55:00,47.8,30.6,30.24,NNW,339,5.0,20.0,51,0.00,,,0.00,0.0,meteohub,2013-11-03 21:55:00,
2013-11-03 16:56:00,47.8,30.6,30.24,NNW,333,15.0,20.0,51,0.00,,,0.00,0.0,meteohub,2013-11-03 21:56:00,
2013-11-03 16:57:00,47.8,31.1,30.24,NNW,348,16.0,20.0,52,0.00,,,0.00,0.0,meteohub,2013-11-03 21:57:00,
2013-11-03 16:58:00,47.8,31.1,30.24,NNW,328,12.0,20.0,52,0.00,,,0.00,0.0,meteohub,2013-11-03 21:58:00,
2013-11-03 17:00:00,47.8,31.1,30.24,NNE,14,12.0,20.0,52,0.00,,,0.00,0.0,meteohub,2013-11-03 22:00:00,
2013-11-03 17:01:00,47.8,31.1,30.24,North,351,12.0,20.0,52,0.00,,,0.00,0.0,meteohub,2013-11-03 22:01:00,
2013-11-03 17:02:00,47.7,30.9,30.24,NNW,344,4.0,20.0,52,0.00,,,0.00,0.0,meteohub,2013-11-03 22:02:00,
2013-11-03 17:05:00,47.7,30.9,30.25,NNE,17,5.0,20.0,52,0.00,,,0.00,0.0,meteohub,2013-11-03 22:05:00,
2013-11-03 17:06:00,47.7,30.9,30.25,NNE,13,4.0,20.0,52,0.00,,,0.00,0.0,meteohub,2013-11-03 22:06:00,
2013-11-03 17:07:00,47.7,30.9,30.25,North,355,8.0,20.0,52,0.00,,,0.00,0.0,meteohub,2013-11-03 22:07:00,
2013-11-03 17:08:00,47.5,30.7,30.25,North,351,12.0,20.0,52,0.00,,,0.00,0.0,meteohub,2013-11-03 22:08:00,
2013-11-03 17:11:00,47.5,30.7,30.25,NNE,16,10.0,18.0,52,0.00,,,0.00,0.0,meteohub,2013-11-03 22:11:00,
2013-11-03 17:12:00,47.5,30.7,30.25,North,355,8.0,18.0,52,0.00,,,0.00,0.0,meteohub,2013-11-03 22:12:00,
2013-11-03 17:13:00,47.5,30.7,30.25,NNW,329,4.0,18.0,52,0.00,,,0.00,0.0,meteohub,2013-11-03 22:13:00,
2013-11-03 17:16:00,47.3,30.6,30.25,North,351,6.0,16.0,52,0.00,,,0.00,0.0,meteohub,2013-11-03 22:16:00,
2013-11-03 17:17:00,47.3,30.6,30.25,NNW,341,10.0,16.0,52,0.00,,,0.00,0.0,meteohub,2013-11-03 22:17:00,
2013-11-03 17:18:00,47.3,30.6,30.25,NNW,333,5.0,16.0,52,0.00,,,0.00,0.0,meteohub,2013-11-03 22:18:00,
2013-11-03 17:19:00,47.1,30.4,30.25,NW,325,5.0,16.0,52,0.00,,,0.00,0.0,meteohub,2013-11-03 22:19:00,
2013-11-03 17:22:00,47.1,30.4,30.25,North,351,11.0,16.0,52,0.00,,,0.00,0.0,meteohub,2013-11-03 22:22:00,
2013-11-03 17:23:00,46.9,30.2,30.25,North,355,8.0,16.0,52,0.00,,,0.00,0.0,meteohub,2013-11-03 22:23:00,
2013-11-03 17:24:00,46.9,30.2,30.25,North,5,9.0,16.0,52,0.00,,,0.00,0.0,meteohub,2013-11-03 22:24:00,
2013-11-03 17:27:00,46.9,30.7,30.26,North,355,2.0,15.0,53,0.00,,,0.00,0.0,meteohub,2013-11-03 22:27:00,
2013-11-03 17:28:00,46.9,30.7,30.26,NE,38,4.0,15.0,53,0.00,,,0.00,0.0,meteohub,2013-11-03 22:28:00,
2013-11-03 17:29:00,46.8,30.9,30.26,North,0,6.0,15.0,54,0.00,,,0.00,0.0,meteohub,2013-11-03 22:29:00,
2013-11-03 17:32:00,46.8,31.5,30.26,North,0,2.0,12.0,55,0.00,,,0.00,0.0,meteohub,2013-11-03 22:32:00,
2013-11-03 17:33:00,46.6,31.3,30.26,NE,53,5.0,12.0,55,0.00,,,0.00,0.0,meteohub,2013-11-03 22:33:00,
2013-11-03 17:34:00,46.6,31.3,30.27,North,9,4.0,12.0,55,0.00,,,0.00,0.0,meteohub,2013-11-03 22:34:00,
2013-11-03 17:35:00,46.6,31.6,30.27,NE,53,6.0,14.0,56,0.00,,,0.00,0.0,meteohub,2013-11-03 22:35:00,
2013-11-03 17:38:00,46.2,31.5,30.27,NNE,26,18.0,18.0,56,0.00,,,0.00,0.0,meteohub,2013-11-03 22:38:00,
2013-11-03 17:39:00,46.0,31.3,30.27,NNE,22,2.0,14.0,56,0.00,,,0.00,0.0,meteohub,2013-11-03 22:39:00,
2013-11-03 17:40:00,46.0,31.3,30.27,NNE,25,8.0,18.0,56,0.00,,,0.00,0.0,meteohub,2013-11-03 22:40:00,
2013-11-03 17:42:00,46.0,31.3,30.27,NNW,343,5.0,18.0,56,0.00,,,0.00,0.0,meteohub,2013-11-03 22:42:00,
2013-11-03 17:43:00,45.9,31.1,30.27,NE,38,12.0,18.0,56,0.00,,,0.00,0.0,meteohub,2013-11-03 22:43:00,
2013-11-03 17:44:00,45.9,31.1,30.27,North,0,8.0,18.0,56,0.00,,,0.00,0.0,meteohub,2013-11-03 22:44:00,
2013-11-03 17:45:00,45.9,31.1,30.27,NNW,347,6.0,18.0,56,0.00,,,0.00,0.0,meteohub,2013-11-03 22:45:00,
2013-11-03 17:47:00,45.7,30.9,30.27,North,5,10.0,18.0,56,0.00,,,0.00,0.0,meteohub,2013-11-03 22:47:00,
2013-11-03 17:48:00,45.7,31.3,30.28,North,10,11.0,18.0,57,0.00,,,0.00,0.0,meteohub,2013-11-03 22:48:00,
2013-11-03 17:49:00,45.7,30.9,30.28,NNE,19,14.0,18.0,56,0.00,,,0.00,0.0,meteohub,2013-11-03 22:49:00,
2013-11-03 17:50:00,45.7,30.9,30.28,NNE,30,11.0,18.0,56,0.00,,,0.00,0.0,meteohub,2013-11-03 22:50:00,
2013-11-03 17:51:00,45.7,31.3,30.28,NNW,343,9.0,18.0,57,0.00,,,0.00,0.0,meteohub,2013-11-03 22:51:00,
2013-11-03 17:53:00,45.5,31.1,30.28,NNW,340,8.0,18.0,57,0.00,,,0.00,0.0,meteohub,2013-11-03 22:53:00,
2013-11-03 17:54:00,45.5,31.1,30.28,North,9,7.0,18.0,57,0.00,,,0.00,0.0,meteohub,2013-11-03 22:54:00,
2013-11-03 17:55:00,45.5,31.1,30.28,NNE,24,8.0,18.0,57,0.00,,,0.00,0.0,meteohub,2013-11-03 22:55:00,
2013-11-03 17:56:00,45.3,30.9,30.28,North,0,6.0,17.0,57,0.00,,,0.00,0.0,meteohub,2013-11-03 22:56:00,
2013-11-03 17:58:00,45.1,31.3,30.29,NNE,25,4.0,17.0,58,0.00,,,0.00,0.0,meteohub,2013-11-03 22:58:00,
2013-11-03 17:59:00,45.1,31.3,30.29,NNE,15,2.0,17.0,58,0.00,,,0.00,0.0,meteohub,2013-11-03 22:59:00,
2013-11-03 18:00:00,45.1,31.3,30.29,North,5,6.0,17.0,58,0.00,,,0.00,0.0,meteohub,2013-11-03 23:00:00,
2013-11-03 18:01:00,45.1,31.3,30.29,North,9,4.0,17.0,58,0.00,,,0.00,0.0,meteohub,2013-11-03 23:01:00,
2013-11-03 18:02:00,45.0,31.1,30.29,North,0,2.0,17.0,58,0.00,,,0.00,0.0,meteohub,2013-11-03 23:02:00,
2013-11-03 18:04:00,45.0,31.1,30.29,NNE,20,0.0,17.0,58,0.00,,,0.00,0.0,meteohub,2013-11-03 23:04:00,
2013-11-03 18:05:00,45.0,30.6,30.29,North,0,5.0,14.0,57,0.00,,,0.00,0.0,meteohub,2013-11-03 23:05:00,
2013-11-03 18:06:00,44.8,30.6,30.29,NNE,15,10.0,14.0,57,0.00,,,0.00,0.0,meteohub,2013-11-03 23:06:00,
2013-11-03 18:07:00,44.8,30.9,30.29,NNE,32,8.0,14.0,58,0.00,,,0.00,0.0,meteohub,2013-11-03 23:07:00,
2013-11-03 18:09:00,44.6,30.4,30.30,NE,38,5.0,14.0,57,0.00,,,0.00,0.0,meteohub,2013-11-03 23:09:00,
2013-11-03 18:11:00,44.4,30.2,30.29,NNE,32,14.0,17.0,57,0.00,,,0.00,0.0,meteohub,2013-11-03 23:11:00,
2013-11-03 18:12:00,44.2,29.5,30.30,NE,55,9.0,17.0,56,0.00,,,0.00,0.0,meteohub,2013-11-03 23:12:00,
2013-11-03 18:13:00,44.2,29.5,30.30,NNE,17,12.0,17.0,56,0.00,,,0.00,0.0,meteohub,2013-11-03 23:13:00,
2013-11-03 18:14:00,44.2,29.5,30.30,North,355,9.0,17.0,56,0.00,,,0.00,0.0,meteohub,2013-11-03 23:14:00,
2013-11-03 18:16:00,44.1,29.8,30.30,NNW,341,11.0,17.0,57,0.00,,,0.00,0.0,meteohub,2013-11-03 23:16:00,
2013-11-03 18:17:00,44.1,29.8,30.30,NNW,331,11.0,17.0,57,0.00,,,0.00,0.0,meteohub,2013-11-03 23:17:00,
2013-11-03 18:18:00,44.1,29.8,30.30,NNE,12,5.0,17.0,57,0.00,,,0.00,0.0,meteohub,2013-11-03 23:18:00,
2013-11-03 18:19:00,43.9,29.7,30.30,North,350,11.0,17.0,57,0.00,,,0.00,0.0,meteohub,2013-11-03 23:19:00,
2013-11-03 18:22:00,43.5,28.9,30.30,NNE,17,10.0,18.0,56,0.00,,,0.00,0.0,meteohub,2013-11-03 23:22:00,
2013-11-03 18:23:00,43.5,28.9,30.30,NNW,347,9.0,18.0,56,0.00,,,0.00,0.0,meteohub,2013-11-03 23:23:00,
2013-11-03 18:24:00,43.5,28.9,30.30,North,355,10.0,18.0,56,0.00,,,0.00,0.0,meteohub,2013-11-03 23:24:00,
2013-11-03 18:27:00,43.2,28.6,30.30,NNW,348,17.0,18.0,56,0.00,,,0.00,0.0,meteohub,2013-11-03 23:27:00,
2013-11-03 18:28:00,43.2,28.6,30.30,NNE,32,19.0,19.0,56,0.00,,,0.00,0.0,meteohub,2013-11-03 23:28:00,
2013-11-03 18:29:00,43.2,28.6,30.31,North,0,20.0,20.0,56,0.00,,,0.00,0.0,meteohub,2013-11-03 23:29:00,
2013-11-03 18:30:00,43.0,28.4,30.31,North,10,13.0,22.0,56,0.00,,,0.00,0.0,meteohub,2013-11-03 23:30:00,
2013-11-03 18:31:00,43.0,28.4,30.31,North,0,13.0,22.0,56,0.00,,,0.00,0.0,meteohub,2013-11-03 23:31:00,
2013-11-03 18:32:00,43.0,28.4,30.31,NW,325,10.0,22.0,56,0.00,,,0.00,0.0,meteohub,2013-11-03 23:32:00,
2013-11-03 18:33:00,43.0,28.4,30.31,NNW,330,9.0,22.0,56,0.00,,,0.00,0.0,meteohub,2013-11-03 23:33:00,
2013-11-03 18:34:00,42.8,28.2,30.31,North,0,13.0,22.0,56,0.00,,,0.00,0.0,meteohub,2013-11-03 23:34:00,
2013-11-03 18:36:00,42.6,28.0,30.31,NNE,19,11.0,22.0,56,0.00,,,0.00,0.0,meteohub,2013-11-03 23:36:00,
2013-11-03 18:37:00,42.6,28.0,30.31,NNW,327,6.0,22.0,56,0.00,,,0.00,0.0,meteohub,2013-11-03 23:37:00,
2013-11-03 18:38:00,42.6,28.0,30.31,NE,43,12.0,22.0,56,0.00,,,0.00,0.0,meteohub,2013-11-03 23:38:00,
2013-11-03 18:40:00,42.4,27.9,30.31,North,0,14.0,22.0,56,0.00,,,0.00,0.0,meteohub,2013-11-03 23:40:00,
2013-11-03 18:41:00,42.4,28.2,30.31,NE,35,3.0,22.0,57,0.00,,,0.00,0.0,meteohub,2013-11-03 23:41:00,
2013-11-03 18:43:00,42.3,28.0,30.31,NNW,339,10.0,22.0,57,0.00,,,0.00,0.0,meteohub,2013-11-03 23:43:00,
2013-11-03 18:46:00,42.3,28.0,30.31,North,0,5.0,16.0,57,0.00,,,0.00,0.0,meteohub,2013-11-03 23:46:00,
2013-11-03 18:47:00,42.1,27.9,30.31,North,355,4.0,16.0,57,0.00,,,0.00,0.0,meteohub,2013-11-03 23:47:00,
2013-11-03 18:48:00,42.1,27.9,30.31,North,355,12.0,16.0,57,0.00,,,0.00,0.0,meteohub,2013-11-03 23:48:00,
2013-11-03 18:51:00,42.1,27.9,30.32,North,350,6.0,20.0,57,0.00,,,0.00,0.0,meteohub,2013-11-03 23:51:00,
2013-11-03 18:52:00,41.9,27.9,30.32,North,355,9.0,20.0,57,0.00,,,0.00,0.0,meteohub,2013-11-03 23:52:00,
2013-11-03 18:53:00,41.9,27.9,30.32,North,5,10.0,20.0,57,0.00,,,0.00,0.0,meteohub,2013-11-03 23:53:00,
2013-11-03 18:56:00,41.7,27.7,30.32,NNE,20,9.0,20.0,57,0.00,,,0.00,0.0,meteohub,2013-11-03 23:56:00,
2013-11-03 18:57:00,41.7,27.7,30.32,NNW,348,5.0,20.0,57,0.00,,,0.00,0.0,meteohub,2013-11-03 23:57:00,
2013-11-03 18:58:00,41.7,27.7,30.32,North,11,12.0,20.0,57,0.00,,,0.00,0.0,meteohub,2013-11-03 23:58:00,
2013-11-03 19:00:00,41.7,27.7,30.32,NNE,17,8.0,20.0,57,0.00,,,0.00,0.0,meteohub,2013-11-04 00:00:00,
2013-11-03 19:01:00,41.5,27.9,30.32,NNE,19,7.0,20.0,58,0.00,,,0.00,0.0,meteohub,2013-11-04 00:01:00,
2013-11-03 19:02:00,41.5,27.9,30.32,NNE,30,11.0,20.0,58,0.00,,,0.00,0.0,meteohub,2013-11-04 00:02:00,
2013-11-03 19:03:00,41.5,27.9,30.32,North,5,11.0,20.0,58,0.00,,,0.00,0.0,meteohub,2013-11-04 00:03:00,
2013-11-03 19:05:00,41.5,27.9,30.32,NNE,30,6.0,20.0,58,0.00,,,0.00,0.0,meteohub,2013-11-04 00:05:00,
2013-11-03 19:07:00,41.4,27.7,30.33,NNE,19,8.0,20.0,58,0.00,,,0.00,0.0,meteohub,2013-11-04 00:07:00,
2013-11-03 19:09:00,41.4,27.7,30.33,NNE,31,10.0,20.0,58,0.00,,,0.00,0.0,meteohub,2013-11-04 00:09:00,
2013-11-03 19:10:00,41.4,27.7,30.33,North,0,10.0,20.0,58,0.00,,,0.00,0.0,meteohub,2013-11-04 00:10:00,
2013-11-03 19:12:00,41.2,27.5,30.33,NNW,344,8.0,20.0,58,0.00,,,0.00,0.0,meteohub,2013-11-04 00:12:00,
2013-11-03 19:15:00,41.2,27.9,30.33,NNE,19,11.0,20.0,59,0.00,,,0.00,0.0,meteohub,2013-11-04 00:15:00,
2013-11-03 19:16:00,41.2,27.9,30.33,NNE,32,8.0,20.0,59,0.00,,,0.00,0.0,meteohub,2013-11-04 00:16:00,
2013-11-03 19:17:00,41.2,27.9,30.33,NNE,30,6.0,20.0,59,0.00,,,0.00,0.0,meteohub,2013-11-04 00:17:00,
2013-11-03 19:18:00,41.0,27.9,30.33,NE,37,4.0,20.0,59,0.00,,,0.00,0.0,meteohub,2013-11-04 00:18:00,
2013-11-03 19:20:00,40.8,27.7,30.33,North,355,2.0,14.0,59,0.00,,,0.00,0.0,meteohub,2013-11-04 00:20:00,
2013-11-03 19:22:00,40.8,27.7,30.33,North,355,4.0,14.0,59,0.00,,,0.00,0.0,meteohub,2013-11-04 00:22:00,
2013-11-03 19:23:00,40.8,28.0,30.33,North,0,15.0,15.0,60,0.00,,,0.00,0.0,meteohub,2013-11-04 00:23:00,
2013-11-03 19:24:00,40.8,27.7,30.33,North,10,12.0,14.0,59,0.00,,,0.00,0.0,meteohub,2013-11-04 00:24:00,
2013-11-03 19:25:00,40.8,27.7,30.33,NNE,26,6.0,14.0,59,0.00,,,0.00,0.0,meteohub,2013-11-04 00:25:00,
2013-11-03 19:27:00,40.6,27.5,30.33,NNE,26,11.0,14.0,59,0.00,,,0.00,0.0,meteohub,2013-11-04 00:27:00,
2013-11-03 19:28:00,40.6,27.5,30.33,NNE,29,6.0,14.0,59,0.00,,,0.00,0.0,meteohub,2013-11-04 00:28:00,
2013-11-03 19:29:00,40.6,27.5,30.33,NE,34,5.0,14.0,59,0.00,,,0.00,0.0,meteohub,2013-11-04 00:29:00,
2013-11-03 19:31:00,40.6,27.5,30.33,NNE,19,11.0,17.0,59,0.00,,,0.00,0.0,meteohub,2013-11-04 00:31:00,
2013-11-03 19:32:00,40.6,27.9,30.34,North,0,5.0,17.0,60,0.00,,,0.00,0.0,meteohub,2013-11-04 00:32:00,
2013-11-03 19:33:00,40.6,27.9,30.34,NNE,14,8.0,17.0,60,0.00,,,0.00,0.0,meteohub,2013-11-04 00:33:00,
2013-11-03 19:34:00,40.5,27.7,30.34,North,5,8.0,17.0,60,0.00,,,0.00,0.0,meteohub,2013-11-04 00:34:00,
2013-11-03 19:35:00,40.5,27.7,30.34,North,5,6.0,17.0,60,0.00,,,0.00,0.0,meteohub,2013-11-04 00:35:00,
2013-11-03 19:36:00,40.5,27.7,30.34,NNE,16,4.0,17.0,60,0.00,,,0.00,0.0,meteohub,2013-11-04 00:36:00,
2013-11-03 19:38:00,40.5,27.7,30.34,North,0,13.0,17.0,60,0.00,,,0.00,0.0,meteohub,2013-11-04 00:38:00,
2013-11-03 19:39:00,40.3,27.5,30.34,NNE,16,10.0,17.0,60,0.00,,,0.00,0.0,meteohub,2013-11-04 00:39:00,
2013-11-03 19:41:00,40.3,27.5,30.34,North,355,8.0,15.0,60,0.00,,,0.00,0.0,meteohub,2013-11-04 00:41:00,
2013-11-03 19:42:00,40.3,27.9,30.34,NNE,12,3.0,15.0,61,0.00,,,0.00,0.0,meteohub,2013-11-04 00:42:00,
2013-11-03 19:44:00,40.3,27.9,30.34,NNE,26,5.0,15.0,61,0.00,,,0.00,0.0,meteohub,2013-11-04 00:44:00,
2013-11-03 19:46:00,40.1,27.7,30.34,NNE,30,10.0,14.0,61,0.00,,,0.00,0.0,meteohub,2013-11-04 00:46:00,
2013-11-03 19:47:00,40.1,27.7,30.34,NNE,14,7.0,14.0,61,0.00,,,0.00,0.0,meteohub,2013-11-04 00:47:00,
2013-11-03 19:48:00,39.9,27.5,30.34,NNE,19,9.0,14.0,61,0.00,,,0.00,0.0,meteohub,2013-11-04 00:48:00,
2013-11-03 19:49:00,39.9,27.5,30.34,North,5,8.0,14.0,61,0.00,,,0.00,0.0,meteohub,2013-11-04 00:49:00,
2013-11-03 19:51:00,39.9,27.5,30.34,NNW,344,9.0,14.0,61,0.00,,,0.00,0.0,meteohub,2013-11-04 00:51:00,
2013-11-03 19:52:00,39.9,27.5,30.34,North,5,5.0,14.0,61,0.00,,,0.00,0.0,meteohub,2013-11-04 00:52:00,
2013-11-03 19:54:00,39.9,27.5,30.34,North,11,8.0,14.0,61,0.00,,,0.00,0.0,meteohub,2013-11-04 00:54:00,
2013-11-03 19:55:00,39.9,27.5,30.34,NNE,20,7.0,14.0,61,0.00,,,0.00,0.0,meteohub,2013-11-04 00:55:00,
2013-11-03 19:57:00,39.9,27.5,30.34,NNE,19,7.0,14.0,61,0.00,,,0.00,0.0,meteohub,2013-11-04 00:57:00,
2013-11-03 19:58:00,39.7,27.3,30.34,NNE,13,7.0,14.0,61,0.00,,,0.00,0.0,meteohub,2013-11-04 00:58:00,
2013-11-03 20:00:00,39.7,27.3,30.35,NNW,334,4.0,14.0,61,0.00,,,0.00,0.0,meteohub,2013-11-04 01:00:00,
2013-11-03 20:01:00,39.7,27.3,30.35,North,355,2.0,16.0,61,0.00,,,0.00,0.0,meteohub,2013-11-04 01:01:00,
2013-11-03 20:03:00,39.7,27.3,30.35,NNW,345,2.0,16.0,61,0.00,,,0.00,0.0,meteohub,2013-11-04 01:03:00,
2013-11-03 20:04:00,39.7,27.3,30.35,NNE,32,8.0,16.0,61,0.00,,,0.00,0.0,meteohub,2013-11-04 01:04:00,
2013-11-03 20:05:00,39.7,27.3,30.35,North,9,12.0,16.0,61,0.00,,,0.00,0.0,meteohub,2013-11-04 01:05:00,
2013-11-03 20:07:00,39.7,27.9,30.35,NNE,24,4.0,16.0,62,0.00,,,0.00,0.0,meteohub,2013-11-04 01:07:00,
2013-11-03 20:08:00,39.7,27.9,30.35,North,9,11.0,16.0,62,0.00,,,0.00,0.0,meteohub,2013-11-04 01:08:00,
2013-11-03 20:09:00,39.6,27.1,30.35,North,0,5.0,16.0,61,0.00,,,0.00,0.0,meteohub,2013-11-04 01:09:00,
2013-11-03 20:10:00,39.6,27.1,30.35,NNE,17,8.0,16.0,61,0.00,,,0.00,0.0,meteohub,2013-11-04 01:10:00,
2013-11-03 20:12:00,39.6,27.1,30.35,North,355,8.0,16.0,61,0.00,,,0.00,0.0,meteohub,2013-11-04 01:12:00,
2013-11-03 20:13:00,39.6,27.1,30.35,North,11,13.0,16.0,61,0.00,,,0.00,0.0,meteohub,2013-11-04 01:13:00,
2013-11-03 20:14:00,39.6,27.1,30.35,NNE,18,5.0,16.0,61,0.00,,,0.00,0.0,meteohub,2013-11-04 01:14:00,
2013-11-03 20:16:00,39.6,27.1,30.35,ENE,63,6.0,15.0,61,0.00,,,0.00,0.0,meteohub,2013-11-04 01:16:00,
2013-11-03 20:18:00,39.6,27.1,30.35,North,5,6.0,15.0,61,0.00,,,0.00,0.0,meteohub,2013-11-04 01:18:00,
2013-11-03 20:19:00,39.6,27.1,30.35,NE,45,13.0,15.0,61,0.00,,,0.00,0.0,meteohub,2013-11-04 01:19:00,
2013-11-03 20:20:00,39.6,27.1,30.35,North,5,12.0,15.0,61,0.00,,,0.00,0.0,meteohub,2013-11-04 01:20:00,
2013-11-03 20:21:00,39.6,27.7,30.35,NNW,336,6.0,15.0,62,0.00,,,0.00,0.0,meteohub,2013-11-04 01:21:00,
2013-11-03 20:24:00,39.4,27.5,30.35,North,10,10.0,15.0,62,0.00,,,0.00,0.0,meteohub,2013-11-04 01:24:00,
2013-11-03 20:25:00,39.4,27.5,30.35,NNE,24,6.0,15.0,62,0.00,,,0.00,0.0,meteohub,2013-11-04 01:25:00,
2013-11-03 20:26:00,39.4,27.5,30.35,North,5,6.0,15.0,62,0.00,,,0.00,0.0,meteohub,2013-11-04 01:26:00,
2013-11-03 20:27:00,39.4,27.5,30.35,North,0,5.0,15.0,62,0.00,,,0.00,0.0,meteohub,2013-11-04 01:27:00,
2013-11-03 20:28:00,39.4,27.5,30.35,NNE,25,8.0,15.0,62,0.00,,,0.00,0.0,meteohub,2013-11-04 01:28:00,
2013-11-03 20:29:00,39.4,27.5,30.35,North,355,4.0,15.0,62,0.00,,,0.00,0.0,meteohub,2013-11-04 01:29:00,
2013-11-03 20:31:00,39.2,27.3,30.36,North,0,12.0,13.0,62,0.00,,,0.00,0.0,meteohub,2013-11-04 01:31:00,
2013-11-03 20:32:00,39.2,27.3,30.36,NNW,346,5.0,13.0,62,0.00,,,0.00,0.0,meteohub,2013-11-04 01:32:00,
2013-11-03 20:33:00,39.2,27.3,30.36,North,355,11.0,13.0,62,0.00,,,0.00,0.0,meteohub,2013-11-04 01:33:00,
2013-11-03 20:34:00,39.2,27.3,30.36,NNW,342,6.0,13.0,62,0.00,,,0.00,0.0,meteohub,2013-11-04 01:34:00,
2013-11-03 20:35:00,39.0,27.1,30.36,North,11,10.0,13.0,62,0.00,,,0.00,0.0,meteohub,2013-11-04 01:35:00,
2013-11-03 20:36:00,39.0,27.1,30.36,North,355,9.0,13.0,62,0.00,,,0.00,0.0,meteohub,2013-11-04 01:36:00,
2013-11-03 20:37:00,39.0,27.1,30.36,North,0,6.0,13.0,62,0.00,,,0.00,0.0,meteohub,2013-11-04 01:37:00,
2013-11-03 20:38:00,39.0,27.1,30.36,North,355,12.0,13.0,62,0.00,,,0.00,0.0,meteohub,2013-11-04 01:38:00,
2013-11-03 20:41:00,39.0,27.1,30.36,NNE,22,8.0,13.0,62,0.00,,,0.00,0.0,meteohub,2013-11-04 01:41:00,
2013-11-03 20:42:00,38.8,27.0,30.36,North,355,4.0,13.0,62,0.00,,,0.00,0.0,meteohub,2013-11-04 01:42:00,
2013-11-03 20:43:00,38.8,27.3,30.36,NNE,24,2.0,13.0,63,0.00,,,0.00,0.0,meteohub,2013-11-04 01:43:00,
2013-11-03 20:46:00,38.8,27.3,30.36,NE,46,4.0,13.0,63,0.00,,,0.00,0.0,meteohub,2013-11-04 01:46:00,
2013-11-03 20:47:00,38.8,27.3,30.36,North,355,9.0,13.0,63,0.00,,,0.00,0.0,meteohub,2013-11-04 01:47:00,
2013-11-03 20:48:00,38.8,27.3,30.36,NE,55,1.0,13.0,63,0.00,,,0.00,0.0,meteohub,2013-11-04 01:48:00,
2013-11-03 20:49:00,38.8,27.3,30.36,NNE,27,2.0,13.0,63,0.00,,,0.00,0.0,meteohub,2013-11-04 01:49:00,
2013-11-03 20:51:00,38.8,27.7,30.37,NNE,13,3.0,13.0,64,0.00,,,0.00,0.0,meteohub,2013-11-04 01:51:00,
2013-11-03 20:52:00,38.8,27.7,30.37,NNE,25,4.0,13.0,64,0.00,,,0.00,0.0,meteohub,2013-11-04 01:52:00,
2013-11-03 20:53:00,38.7,27.1,30.37,NNE,26,6.0,13.0,63,0.00,,,0.00,0.0,meteohub,2013-11-04 01:53:00,
2013-11-03 20:55:00,38.7,27.1,30.37,NNE,14,5.0,13.0,63,0.00,,,0.00,0.0,meteohub,2013-11-04 01:55:00,
2013-11-03 20:56:00,38.7,27.1,30.37,NNE,25,8.0,13.0,63,0.00,,,0.00,0.0,meteohub,2013-11-04 01:56:00,
2013-11-03 20:57:00,38.7,27.1,30.37,NNE,28,3.0,13.0,63,0.00,,,0.00,0.0,meteohub,2013-11-04 01:57:00,
2013-11-03 20:59:00,38.7,27.1,30.37,NNE,17,3.0,13.0,63,0.00,,,0.00,0.0,meteohub,2013-11-04 01:59:00,
2013-11-03 21:00:00,38.7,27.1,30.37,ENE,67,4.0,13.0,63,0.00,,,0.00,0.0,meteohub,2013-11-04 02:00:00,
2013-11-03 21:01:00,38.7,27.1,30.37,NNE,18,4.0,13.0,63,0.00,,,0.00,0.0,meteohub,2013-11-04 02:01:00,
2013-11-03 21:02:00,38.5,27.0,30.37,NNW,340,5.0,13.0,63,0.00,,,0.00,0.0,meteohub,2013-11-04 02:02:00,
2013-11-03 21:04:00,38.5,27.3,30.37,NNE,22,6.0,13.0,64,0.00,,,0.00,0.0,meteohub,2013-11-04 02:04:00,
2013-11-03 21:05:00,38.5,27.3,30.37,NNE,13,2.0,12.0,64,0.00,,,0.00,0.0,meteohub,2013-11-04 02:05:00,
2013-11-03 21:06:00,38.5,27.3,30.37,NNE,13,3.0,12.0,64,0.00,,,0.00,0.0,meteohub,2013-11-04 02:06:00,
2013-11-03 21:07:00,38.5,27.3,30.37,NE,37,4.0,12.0,64,0.00,,,0.00,0.0,meteohub,2013-11-04 02:07:00,
2013-11-03 21:08:00,38.5,27.3,30.37,NNW,344,5.0,12.0,64,0.00,,,0.00,0.0,meteohub,2013-11-04 02:08:00,
2013-11-03 21:10:00,38.5,27.0,30.38,NNE,12,8.0,12.0,63,0.00,,,0.00,0.0,meteohub,2013-11-04 02:10:00,
2013-11-03 21:12:00,38.5,27.0,30.38,NNE,27,5.0,12.0,63,0.00,,,0.00,0.0,meteohub,2013-11-04 02:12:00,
2013-11-03 21:13:00,38.3,26.8,30.38,North,9,11.0,12.0,63,0.00,,,0.00,0.0,meteohub,2013-11-04 02:13:00,
2013-11-03 21:16:00,38.3,26.8,30.38,NNE,24,3.0,12.0,63,0.00,,,0.00,0.0,meteohub,2013-11-04 02:16:00,
2013-11-03 21:17:00,38.3,26.8,30.38,North,350,10.0,12.0,63,0.00,,,0.00,0.0,meteohub,2013-11-04 02:17:00,
2013-11-03 21:18:00,38.3,26.8,30.38,North,0,9.0,12.0,63,0.00,,,0.00,0.0,meteohub,2013-11-04 02:18:00,
2013-11-03 21:21:00,38.1,26.6,30.39,North,0,9.0,12.0,63,0.00,,,0.00,0.0,meteohub,2013-11-04 02:21:00,
2013-11-03 21:22:00,38.1,26.6,30.39,NNE,18,3.0,12.0,63,0.00,,,0.00,0.0,meteohub,2013-11-04 02:22:00,
2013-11-03 21:23:00,38.1,26.6,30.39,NNE,24,3.0,12.0,63,0.00,,,0.00,0.0,meteohub,2013-11-04 02:23:00,
2013-11-03 21:24:00,38.1,26.6,30.39,NNE,22,5.0,12.0,63,0.00,,,0.00,0.0,meteohub,2013-11-04 02:24:00,
2013-11-03 21:26:00,38.1,26.6,30.39,NE,36,4.0,12.0,63,0.00,,,0.00,0.0,meteohub,2013-11-04 02:26:00,
2013-11-03 21:28:00,37.9,26.4,30.39,North,355,10.0,12.0,63,0.00,,,0.00,0.0,meteohub,2013-11-04 02:28:00,
2013-11-03 21:30:00,37.9,26.4,30.39,North,355,1.0,12.0,63,0.00,,,0.00,0.0,meteohub,2013-11-04 02:30:00,
2013-11-03 21:31:00,37.9,26.8,30.39,North,355,4.0,12.0,64,0.00,,,0.00,0.0,meteohub,2013-11-04 02:31:00,
2013-11-03 21:33:00,37.9,26.4,30.39,North,5,4.0,12.0,63,0.00,,,0.00,0.0,meteohub,2013-11-04 02:33:00,
2013-11-03 21:34:00,37.9,26.8,30.39,North,0,2.0,12.0,64,0.00,,,0.00,0.0,meteohub,2013-11-04 02:34:00,
2013-11-03 21:35:00,37.9,26.8,30.40,NE,50,2.0,12.0,64,0.00,,,0.00,0.0,meteohub,2013-11-04 02:35:00,
2013-11-03 21:37:00,37.8,26.2,30.40,NNE,16,3.0,12.0,63,0.00,,,0.00,0.0,meteohub,2013-11-04 02:37:00,
2013-11-03 21:39:00,37.8,26.6,30.40,NNE,21,4.0,12.0,64,0.00,,,0.00,0.0,meteohub,2013-11-04 02:39:00,
2013-11-03 21:40:00,37.8,26.2,30.40,NNE,28,3.0,12.0,63,0.00,,,0.00,0.0,meteohub,2013-11-04 02:40:00,
2013-11-03 21:43:00,37.8,26.2,30.40,NNE,26,2.0,12.0,63,0.00,,,0.00,0.0,meteohub,2013-11-04 02:43:00,
2013-11-03 21:44:00,37.8,26.2,30.40,North,5,3.0,12.0,63,0.00,,,0.00,0.0,meteohub,2013-11-04 02:44:00,
2013-11-03 21:45:00,37.8,26.6,30.40,NNE,14,4.0,12.0,64,0.00,,,0.00,0.0,meteohub,2013-11-04 02:45:00,
2013-11-03 21:46:00,37.8,26.6,30.40,NNE,17,4.0,8.0,64,0.00,,,0.00,0.0,meteohub,2013-11-04 02:46:00,
2013-11-03 21:48:00,37.8,26.2,30.41,NNE,28,4.0,8.0,63,0.00,,,0.00,0.0,meteohub,2013-11-04 02:48:00,
2013-11-03 21:49:00,37.8,26.2,30.41,NNE,15,3.0,8.0,63,0.00,,,0.00,0.0,meteohub,2013-11-04 02:49:00,
2013-11-03 21:50:00,37.8,26.2,30.41,NNE,14,0.0,10.0,63,0.00,,,0.00,0.0,meteohub,2013-11-04 02:50:00,
2013-11-03 21:51:00,37.6,26.1,30.41,North,5,4.0,10.0,63,0.00,,,0.00,0.0,meteohub,2013-11-04 02:51:00,
2013-11-03 21:53:00,37.6,26.1,30.41,NNE,23,9.0,10.0,63,0.00,,,0.00,0.0,meteohub,2013-11-04 02:53:00,
2013-11-03 21:54:00,37.6,26.1,30.41,NNE,30,3.0,10.0,63,0.00,,,0.00,0.0,meteohub,2013-11-04 02:54:00,
2013-11-03 21:55:00,37.6,26.1,30.41,North,9,8.0,13.0,63,0.00,,,0.00,0.0,meteohub,2013-11-04 02:55:00,
2013-11-03 21:56:00,37.6,26.1,30.41,NNE,19,7.0,13.0,63,0.00,,,0.00,0.0,meteohub,2013-11-04 02:56:00,
2013-11-03 21:57:00,37.6,26.1,30.41,North,355,2.0,13.0,63,0.00,,,0.00,0.0,meteohub,2013-11-04 02:57:00,
2013-11-03 21:59:00,37.6,26.1,30.41,North,355,1.0,13.0,63,0.00,,,0.00,0.0,meteohub,2013-11-04 02:59:00,
2013-11-03 22:01:00,37.6,26.1,30.41,NNE,15,1.0,13.0,63,0.00,,,0.00,0.0,meteohub,2013-11-04 03:01:00,
2013-11-03 22:02:00,37.6,26.1,30.41,NNE,15,1.0,13.0,63,0.00,,,0.00,0.0,meteohub,2013-11-04 03:02:00,
2013-11-03 22:04:00,37.4,25.9,30.41,North,5,3.0,13.0,63,0.00,,,0.00,0.0,meteohub,2013-11-04 03:04:00,
2013-11-03 22:06:00,37.4,25.9,30.41,NNE,20,2.0,13.0,63,0.00,,,0.00,0.0,meteohub,2013-11-04 03:06:00,
2013-11-03 22:07:00,37.2,25.7,30.41,NNE,20,0.0,13.0,63,0.00,,,0.00,0.0,meteohub,2013-11-04 03:07:00,
2013-11-03 22:08:00,37.2,26.2,30.41,NNE,20,3.0,13.0,64,0.00,,,0.00,0.0,meteohub,2013-11-04 03:08:00,
2013-11-03 22:09:00,37.2,26.2,30.41,NNE,19,4.0,13.0,64,0.00,,,0.00,0.0,meteohub,2013-11-04 03:09:00,
2013-11-03 22:11:00,37.2,26.2,30.42,NNE,16,3.0,9.0,64,0.00,,,0.00,0.0,meteohub,2013-11-04 03:11:00,
2013-11-03 22:12:00,37.2,26.2,30.41,North,9,5.0,9.0,64,0.00,,,0.00,0.0,meteohub,2013-11-04 03:12:00,
2013-11-03 22:13:00,37.2,26.2,30.41,North,355,5.0,9.0,64,0.00,,,0.00,0.0,meteohub,2013-11-04 03:13:00,
2013-11-03 22:14:00,37.2,26.2,30.42,North,0,2.0,9.0,64,0.00,,,0.00,0.0,meteohub,2013-11-04 03:14:00,
2013-11-03 22:15:00,37.0,26.1,30.42,North,355,6.0,8.0,64,0.00,,,0.00,0.0,meteohub,2013-11-04 03:15:00,
2013-11-03 22:16:00,37.0,26.1,30.42,NNE,15,5.0,8.0,64,0.00,,,0.00,0.0,meteohub,2013-11-04 03:16:00,
2013-11-03 22:17:00,37.0,26.1,30.42,NNE,13,2.0,8.0,64,0.00,,,0.00,0.0,meteohub,2013-11-04 03:17:00,
2013-11-03 22:18:00,37.0,26.1,30.42,North,355,6.0,8.0,64,0.00,,,0.00,0.0,meteohub,2013-11-04 03:18:00,
2013-11-03 22:19:00,37.0,26.1,30.42,NNW,348,5.0,8.0,64,0.00,,,0.00,0.0,meteohub,2013-11-04 03:19:00,
2013-11-03 22:21:00,37.0,26.1,30.42,North,0,5.0,8.0,64,0.00,,,0.00,0.0,meteohub,2013-11-04 03:21:00,
2013-11-03 22:22:00,37.0,26.1,30.42,NNE,14,2.0,8.0,64,0.00,,,0.00,0.0,meteohub,2013-11-04 03:22:00,
2013-11-03 22:24:00,37.0,26.1,30.42,North,5,6.0,8.0,64,0.00,,,0.00,0.0,meteohub,2013-11-04 03:24:00,
2013-11-03 22:25:00,37.0,26.1,30.42,North,5,5.0,8.0,64,0.00,,,0.00,0.0,meteohub,2013-11-04 03:25:00,
2013-11-03 22:26:00,37.0,26.1,30.42,North,5,4.0,8.0,64,0.00,,,0.00,0.0,meteohub,2013-11-04 03:26:00,
2013-11-03 22:29:00,37.0,26.1,30.42,North,9,2.0,8.0,64,0.00,,,0.00,0.0,meteohub,2013-11-04 03:29:00,
2013-11-03 22:30:00,37.0,26.1,30.42,North,9,3.0,8.0,64,0.00,,,0.00,0.0,meteohub,2013-11-04 03:30:00,
2013-11-03 22:31:00,37.0,26.1,30.42,North,9,4.0,8.0,64,0.00,,,0.00,0.0,meteohub,2013-11-04 03:31:00,
2013-11-03 22:32:00,37.0,26.1,30.42,North,9,1.0,8.0,64,0.00,,,0.00,0.0,meteohub,2013-11-04 03:32:00,
2013-11-03 22:35:00,36.9,25.9,30.42,North,9,4.0,8.0,64,0.00,,,0.00,0.0,meteohub,2013-11-04 03:35:00,
2013-11-03 22:36:00,36.9,25.9,30.42,North,9,2.0,8.0,64,0.00,,,0.00,0.0,meteohub,2013-11-04 03:36:00,
2013-11-03 22:37:00,36.9,26.2,30.42,NNW,343,3.0,8.0,65,0.00,,,0.00,0.0,meteohub,2013-11-04 03:37:00,
2013-11-03 22:38:00,36.9,25.9,30.42,North,0,1.0,8.0,64,0.00,,,0.00,0.0,meteohub,2013-11-04 03:38:00,
2013-11-03 22:40:00,36.9,26.2,30.42,North,355,3.0,10.0,65,0.00,,,0.00,0.0,meteohub,2013-11-04 03:40:00,
2013-11-03 22:41:00,36.9,25.9,30.42,North,355,0.0,10.0,64,0.00,,,0.00,0.0,meteohub,2013-11-04 03:41:00,
2013-11-03 22:42:00,36.9,26.2,30.42,North,355,6.0,10.0,65,0.00,,,0.00,0.0,meteohub,2013-11-04 03:42:00,
2013-11-03 22:43:00,36.9,26.2,30.42,North,355,1.0,10.0,65,0.00,,,0.00,0.0,meteohub,2013-11-04 03:43:00,
2013-11-03 22:46:00,36.9,25.9,30.42,North,351,3.0,10.0,64,0.00,,,0.00,0.0,meteohub,2013-11-04 03:46:00,
2013-11-03 22:47:00,36.9,26.2,30.42,NNW,346,0.0,10.0,65,0.00,,,0.00,0.0,meteohub,2013-11-04 03:47:00,
2013-11-03 22:49:00,36.9,26.2,30.42,NW,324,5.0,10.0,65,0.00,,,0.00,0.0,meteohub,2013-11-04 03:49:00,
2013-11-03 22:50:00,36.9,26.2,30.42,NW,324,3.0,10.0,65,0.00,,,0.00,0.0,meteohub,2013-11-04 03:50:00,
2013-11-03 22:51:00,36.7,26.1,30.42,NNW,329,3.0,10.0,65,0.00,,,0.00,0.0,meteohub,2013-11-04 03:51:00,
2013-11-03 22:52:00,36.7,26.1,30.42,NNW,329,4.0,10.0,65,0.00,,,0.00,0.0,meteohub,2013-11-04 03:52:00,
2013-11-03 22:53:00,36.7,26.1,30.42,NNW,329,2.0,10.0,65,0.00,,,0.00,0.0,meteohub,2013-11-04 03:53:00,
2013-11-03 22:55:00,36.7,26.1,30.42,NNW,327,3.0,6.0,65,0.00,,,0.00,0.0,meteohub,2013-11-04 03:55:00,
2013-11-03 22:56:00,36.7,26.4,30.42,NNW,327,2.0,6.0,66,0.00,,,0.00,0.0,meteohub,2013-11-04 03:56:00,
2013-11-03 22:57:00,36.7,26.4,30.43,NNW,327,2.0,6.0,66,0.00,,,0.00,0.0,meteohub,2013-11-04 03:57:00,
2013-11-03 22:58:00,36.7,26.4,30.43,NNW,327,1.0,6.0,66,0.00,,,0.00,0.0,meteohub,2013-11-04 03:58:00,
2013-11-03 22:59:00,36.7,26.4,30.43,NNW,327,1.0,6.0,66,0.00,,,0.00,0.0,meteohub,2013-11-04 03:59:00,
2013-11-03 23:00:00,36.7,26.4,30.43,NNW,327,4.0,6.0,66,0.00,,,0.00,0.0,meteohub,2013-11-04 04:00:00,
2013-11-03 23:01:00,36.5,26.2,30.43,NNW,327,3.0,6.0,66,0.00,,,0.00,0.0,meteohub,2013-11-04 04:01:00,
2013-11-03 23:02:00,36.5,26.2,30.43,NNW,327,0.0,6.0,66,0.00,,,0.00,0.0,meteohub,2013-11-04 04:02:00,
2013-11-03 23:03:00,36.5,26.2,30.43,NNW,327,0.0,6.0,66,0.00,,,0.00,0.0,meteohub,2013-11-04 04:03:00,
2013-11-03 23:04:00,36.5,26.2,30.43,NW,326,3.0,6.0,66,0.00,,,0.00,0.0,meteohub,2013-11-04 04:04:00,
2013-11-03 23:07:00,36.3,26.1,30.43,NNW,328,0.0,6.0,66,0.00,,,0.00,0.0,meteohub,2013-11-04 04:07:00,
2013-11-03 23:08:00,36.3,26.1,30.43,NNW,327,3.0,6.0,66,0.00,,,0.00,0.0,meteohub,2013-11-04 04:08:00,
2013-11-03 23:09:00,36.3,26.1,30.43,NNW,327,2.0,6.0,66,0.00,,,0.00,0.0,meteohub,2013-11-04 04:09:00,
2013-11-03 23:12:00,36.3,26.4,30.43,NNW,327,3.0,5.0,67,0.00,,,0.00,0.0,meteohub,2013-11-04 04:12:00,
2013-11-03 23:13:00,36.3,26.4,30.43,NNW,327,3.0,5.0,67,0.00,,,0.00,0.0,meteohub,2013-11-04 04:13:00,
2013-11-03 23:14:00,36.3,26.4,30.43,NNW,327,2.0,5.0,67,0.00,,,0.00,0.0,meteohub,2013-11-04 04:14:00,
2013-11-03 23:15:00,36.1,26.2,30.43,NNW,327,2.0,5.0,67,0.00,,,0.00,0.0,meteohub,2013-11-04 04:15:00,
2013-11-03 23:17:00,36.1,26.2,30.43,NNW,327,1.0,5.0,67,0.00,,,0.00,0.0,meteohub,2013-11-04 04:17:00,
2013-11-03 23:18:00,36.1,26.2,30.43,NNW,327,1.0,5.0,67,0.00,,,0.00,0.0,meteohub,2013-11-04 04:18:00,
2013-11-03 23:19:00,36.1,26.2,30.43,NNW,330,2.0,5.0,67,0.00,,,0.00,0.0,meteohub,2013-11-04 04:19:00,
2013-11-03 23:20:00,36.1,26.2,30.43,NNW,330,2.0,6.0,67,0.00,,,0.00,0.0,meteohub,2013-11-04 04:20:00,
2013-11-03 23:22:00,36.0,26.1,30.43,NW,324,5.0,6.0,67,0.00,,,0.00,0.0,meteohub,2013-11-04 04:22:00,
2013-11-03 23:23:00,36.0,26.1,30.43,NW,323,2.0,6.0,67,0.00,,,0.00,0.0,meteohub,2013-11-04 04:23:00,
2013-11-03 23:24:00,36.0,26.1,30.43,NW,323,3.0,6.0,67,0.00,,,0.00,0.0,meteohub,2013-11-04 04:24:00,
2013-11-03 23:25:00,36.0,26.1,30.43,NW,323,2.0,6.0,67,0.00,,,0.00,0.0,meteohub,2013-11-04 04:25:00,
2013-11-03 23:28:00,36.0,26.1,30.43,NW,309,2.0,6.0,67,0.00,,,0.00,0.0,meteohub,2013-11-04 04:28:00,
2013-11-03 23:29:00,35.8,25.9,30.43,NW,313,5.0,6.0,67,0.00,,,0.00,0.0,meteohub,2013-11-04 04:29:00,
2013-11-03 23:30:00,35.8,25.9,30.43,NW,315,3.0,8.0,67,0.00,,,0.00,0.0,meteohub,2013-11-04 04:30:00,
2013-11-03 23:31:00,35.8,25.9,30.43,NW,326,5.0,8.0,67,0.00,,,0.00,0.0,meteohub,2013-11-04 04:31:00,
2013-11-03 23:33:00,35.8,26.2,30.44,NNW,340,2.0,8.0,68,0.00,,,0.00,0.0,meteohub,2013-11-04 04:33:00,
2013-11-03 23:34:00,35.8,26.2,30.44,NNW,340,2.0,8.0,68,0.00,,,0.00,0.0,meteohub,2013-11-04 04:34:00,
2013-11-03 23:35:00,35.8,26.2,30.44,NNW,340,1.0,8.0,68,0.00,,,0.00,0.0,meteohub,2013-11-04 04:35:00,
2013-11-03 23:36:00,35.6,26.1,30.44,NNW,339,4.0,8.0,68,0.00,,,0.00,0.0,meteohub,2013-11-04 04:36:00,
2013-11-03 23:38:00,35.4,25.9,30.44,NNW,340,4.0,8.0,68,0.00,,,0.00,0.0,meteohub,2013-11-04 04:38:00,
2013-11-03 23:39:00,35.4,25.5,30.44,NNW,338,4.0,8.0,67,0.00,,,0.00,0.0,meteohub,2013-11-04 04:39:00,
2013-11-03 23:40:00,35.4,25.9,30.44,NNW,338,4.0,8.0,68,0.00,,,0.00,0.0,meteohub,2013-11-04 04:40:00,
2013-11-03 23:42:00,35.4,25.9,30.44,NNW,338,3.0,8.0,68,0.00,,,0.00,0.0,meteohub,2013-11-04 04:42:00,
2013-11-03 23:44:00,35.4,25.9,30.44,NNW,338,1.0,8.0,68,0.00,,,0.00,0.0,meteohub,2013-11-04 04:44:00,
2013-11-03 23:45:00,35.4,25.9,30.44,NNW,342,5.0,8.0,68,0.00,,,0.00,0.0,meteohub,2013-11-04 04:45:00,
2013-11-03 23:46:00,35.4,25.9,30.44,NNW,338,6.0,8.0,68,0.00,,,0.00,0.0,meteohub,2013-11-04 04:46:00,
2013-11-03 23:47:00,35.4,25.9,30.44,NNW,339,2.0,8.0,68,0.00,,,0.00,0.0,meteohub,2013-11-04 04:47:00,
2013-11-03 23:49:00,35.4,25.9,30.44,NNW,339,1.0,8.0,68,0.00,,,0.00,0.0,meteohub,2013-11-04 04:49:00,
2013-11-03 23:51:00,35.4,25.9,30.44,NNW,339,3.0,8.0,68,0.00,,,0.00,0.0,meteohub,2013-11-04 04:51:00,
2013-11-03 23:52:00,35.4,25.9,30.44,NNW,339,0.0,8.0,68,0.00,,,0.00,0.0,meteohub,2013-11-04 04:52:00,
2013-11-03 23:53:00,35.4,25.9,30.44,NNW,339,1.0,8.0,68,0.00,,,0.00,0.0,meteohub,2013-11-04 04:53:00,
2013-11-03 23:55:00,35.4,25.5,30.44,NNW,339,3.0,8.0,67,0.00,,,0.00,0.0,meteohub,2013-11-04 04:55:00,
2013-11-03 23:57:00,35.2,25.3,30.44,NNW,346,3.0,8.0,67,0.00,,,0.00,0.0,meteohub,2013-11-04 04:57:00,
2013-11-03 23:58:00,35.2,25.3,30.44,North,351,6.0,8.0,67,0.00,,,0.00,0.0,meteohub,2013-11-04 04:58:00,